GFSSGP_850_rhum_102.txt.gz
RH
14 19 16 19 12 10 8 6 9 10 11 12 12 15 14 16 16 15 25 50 34 16 15 18 28 36 44 50 50 48 51 57 60 66 70 69 68 62 57 54 59 87 96 64 80 77 71 68 72
21 18 18 15 10 8 6 6 11 9 11 14 15 17 15 13 24 30 43 25 15 14 14 14 24 37 46 49 49 47 52 57 60 67 73 73 71 64 57 56 58 79 90 78 78 76 76 71 71
22 21 13 10 9 8 6 6 8 11 13 13 15 18 15 14 28 28 40 12 15 15 14 14 19 29 44 50 49 47 47 45 54 68 72 74 72 65 62 58 63 80 76 71 71 76 78 75 75
26 18 15 11 8 8 8 7 10 12 13 13 11 11 23 32 29 33 29 15 16 15 14 15 17 26 44 51 52 50 47 46 46 51 62 70 72 72 66 73 70 76 74 70 68 72 76 76 82
22 14 10 11 8 6 10 11 14 13 12 12 12 11 18 34 41 35 19 16 16 15 16 16 20 28 41 52 56 56 52 50 50 50 60 69 75 73 59 75 63 55 73 75 67 68 72 78 83
16 14 11 8 7 8 10 8 13 13 10 11 12 12 14 30 24 21 20 17 16 16 17 18 22 30 38 48 56 61 60 56 53 53 61 73 76 73 49 57 60 57 59 70 70 65 73 79 83
17 12 9 7 6 6 9 9 10 8 8 11 13 13 14 33 45 31 23 18 16 18 20 22 26 36 46 53 58 65 68 67 63 63 71 79 76 76 72 76 64 53 54 71 68 60 69 77 78
16 11 11 8 10 8 8 11 10 9 10 18 18 13 15 40 62 38 31 18 17 20 22 24 28 35 48 56 63 70 72 75 74 70 68 73 76 81 79 72 64 58 64 66 68 63 65 62 79
21 16 13 10 11 9 12 12 12 13 13 14 16 18 32 16 54 72 60 29 21 23 23 24 29 35 44 55 64 69 77 85 89 83 76 72 78 79 83 70 66 63 69 68 74 71 80 86 75
20 19 15 10 10 11 10 11 12 12 11 13 13 29 34 45 59 65 69 55 47 24 23 26 32 43 43 52 68 74 81 87 99 99 91 89 94 93 87 76 74 66 69 76 80 88 92 82 95
21 19 14 14 15 13 11 10 12 11 9 10 11 14 14 27 38 51 57 53 61 75 52 38 32 36 42 92 45 55 70 79 95 95 95 91 90 92 79 96 75 74 78 82 92 93 96 84 97
24 17 17 14 16 14 14 12 12 12 12 10 11 13 14 15 22 35 42 52 60 73 54 34 36 33 40 90 47 51 50 89 93 89 95 93 91 88 85 79 73 69 78 81 92 95 92 97 94
25 20 18 19 18 16 15 15 14 13 14 13 13 14 16 14 16 22 31 40 51 69 50 35 38 36 42 51 51 47 48 73 86 88 90 98 93 89 90 88 79 79 85 92 90 99 92 99 91
21 22 20 20 19 18 18 17 16 17 18 17 17 17 14 14 14 17 25 34 46 59 74 69 41 40 44 50 64 55 45 78 90 89 88 94 94 92 99 94 91 93 94 94 92 98 91 93 96
20 21 18 18 20 20 20 20 19 17 18 17 16 16 15 13 13 17 21 29 40 50 68 82 44 43 44 51 68 64 88 89 91 90 94 92 98 94 96 96 98 97 92 93 99 100 92 88 98
23 23 28 20 20 18 18 23 14 16 17 19 18 17 17 17 14 15 21 28 33 43 58 80 49 46 42 52 66 76 91 95 95 95 92 96 99 95 96 94 87 94 94 97 99 100 95 98 95
27 30 31 26 22 20 20 20 14 15 16 16 16 17 17 18 17 18 20 26 34 41 55 74 54 46 44 52 62 69 44 59 90 94 96 93 91 91 90 92 81 93 98 100 99 99 99 99 95
29 29 27 27 21 23 23 22 17 18 19 19 18 20 20 20 19 18 19 22 27 43 57 71 54 48 48 51 69 89 48 62 79 76 89 83 90 89 87 92 83 82 100 100 100 99 100 91 98
21 21 22 19 21 28 24 23 20 18 20 22 21 21 20 19 19 18 19 24 26 34 55 67 70 62 51 50 67 60 49 61 83 75 75 84 85 89 91 76 78 95 100 100 100 100 99 95 96
22 23 23 19 19 23 22 21 17 16 17 18 20 19 19 20 21 20 20 21 26 29 31 53 53 65 43 50 60 60 52 62 82 80 78 84 84 88 96 78 74 77 100 100 98 100 100 100 100
23 24 23 25 20 19 22 22 17 14 15 16 17 18 19 19 20 21 21 21 23 31 26 30 44 82 67 62 71 75 64 64 92 87 81 82 85 89 98 93 81 77 94 98 89 83 87 92 90
26 21 24 24 25 27 32 22 18 16 17 17 18 20 20 21 22 22 21 22 22 29 33 42 59 78 93 88 67 55 50 57 82 86 65 98 82 84 97 99 99 86 94 96 99 96 97 86 75
26 26 25 25 29 33 30 37 19 18 17 26 33 40 42 45 42 33 27 24 24 25 42 51 64 76 93 92 66 58 65 84 96 92 65 88 91 88 99 94 94 100 98 93 100 96 100 87 74
35 41 43 41 39 51 30 30 20 23 29 33 41 43 46 47 49 48 38 31 27 25 39 66 68 78 92 84 71 62 60 77 95 76 95 99 99 99 98 93 99 98 94 100 100 97 90 100 95
42 45 61 70 77 42 31 35 24 33 46 45 43 44 48 53 55 53 47 37 30 30 58 73 77 80 86 63 69 63 57 67 86 90 91 94 99 99 98 97 94 93 99 100 100 100 100 95 94
46 39 40 40 42 34 42 42 32 44 46 43 42 44 51 57 68 66 53 45 34 46 69 77 78 84 92 69 70 66 58 89 96 78 88 95 99 99 96 95 91 99 97 94 100 100 100 100 100
50 62 43 63 56 58 29 29 32 39 40 40 40 48 57 65 81 89 66 51 41 55 74 85 86 91 100 96 77 63 65 90 97 96 83 91 76 98 98 97 97 97 99 95 100 99 99 100 100
44 44 67 60 69 60 35 36 37 47 47 43 43 45 60 74 94 91 81 60 44 63 81 97 98 99 99 100 87 69 69 89 96 88 66 75 75 92 95 97 98 100 100 100 94 96 97 99 100
61 61 60 55 68 65 50 49 52 46 41 45 43 48 67 84 99 99 99 86 67 72 88 99 98 100 100 100 90 78 78 89 93 93 68 72 75 96 95 97 99 99 99 99 100 99 100 100 100
43 48 50 60 76 62 68 44 46 36 35 41 45 62 72 83 97 99 100 100 95 85 98 100 99 99 99 100 95 92 88 90 89 94 76 75 77 89 98 98 98 98 99 100 99 99 98 98 99

GFSSGP_850_rhum_105.txt.gz
RH
15 14 23 14 12 8 6 6 4 7 8 7 8 9 10 10 13 19 29 46 55 57 13 16 19 25 34 42 46 46 45 43 49 60 68 66 63 62 57 55 61 85 86 89 79 79 72 70 74
26 28 16 11 11 7 6 4 5 6 8 10 10 12 11 12 14 24 33 48 45 47 14 14 18 26 34 39 43 43 42 49 56 64 69 70 67 65 61 62 81 85 82 81 78 76 75 72 74
28 21 12 9 9 7 5 4 4 5 9 10 11 11 10 11 16 19 30 38 40 46 45 14 14 17 31 42 44 44 44 51 58 64 69 72 71 70 69 64 77 80 77 74 74 72 70 71 70
26 18 13 11 9 6 5 4 4 7 9 10 9 10 13 18 20 22 31 37 40 45 54 14 16 19 30 45 48 47 46 47 49 60 69 75 74 78 69 65 65 65 68 70 72 75 71 73 70
21 12 10 8 8 5 4 5 8 8 8 9 9 10 12 21 22 26 35 41 43 50 57 16 17 21 30 45 51 51 48 47 47 50 62 72 79 76 71 62 60 60 68 67 61 62 60 72 76
18 13 11 9 7 5 4 5 7 10 9 9 10 9 10 17 29 32 39 46 51 61 52 16 18 23 33 46 54 56 54 51 50 50 53 71 76 73 70 66 65 56 54 60 56 57 62 55 72
16 11 10 8 6 5 4 6 6 8 8 8 9 10 10 18 27 35 43 52 64 54 22 18 19 24 30 42 54 60 60 58 54 54 61 72 71 69 69 66 64 61 60 60 53 55 68 60 67
17 12 12 9 8 6 4 6 7 6 6 11 11 10 11 28 34 49 47 56 72 59 21 23 22 24 27 34 48 59 65 66 64 61 64 71 74 74 79 68 66 67 63 58 58 67 76 79 76
18 16 14 11 9 7 5 7 8 7 6 10 11 12 25 30 36 50 48 57 70 80 65 44 48 38 30 35 39 55 62 70 74 72 72 74 76 79 82 78 74 71 66 61 65 69 84 90 82
18 20 16 9 8 7 8 9 8 9 9 9 12 15 23 28 34 45 46 52 57 72 80 82 87 93 87 48 58 48 56 68 77 82 82 77 92 86 91 86 79 75 69 67 67 79 84 86 85
18 20 15 12 10 10 9 8 8 8 9 7 9 10 16 17 23 35 39 42 46 54 68 76 88 90 96 94 96 95 95 87 94 86 91 90 94 91 92 92 89 83 79 81 80 87 87 84 89
19 17 16 15 12 12 12 11 9 8 9 9 7 9 11 13 14 20 30 35 40 47 60 70 79 90 93 82 94 51 84 92 96 82 83 88 89 89 91 98 91 96 84 97 93 86 85 92 88
18 16 16 16 14 13 13 12 12 11 11 11 11 9 10 11 12 13 18 26 30 38 51 70 77 90 92 92 92 93 94 57 60 89 84 84 87 90 88 89 92 98 97 92 83 84 88 95 95
18 17 18 17 16 16 16 14 14 14 14 14 13 12 10 10 12 11 14 18 23 32 44 65 85 91 92 93 92 90 65 41 42 78 91 80 88 87 90 86 84 86 85 83 80 86 88 88 89
20 21 18 17 18 16 16 18 17 15 15 15 15 15 13 12 10 11 12 15 20 24 34 64 91 94 93 92 94 93 90 94 39 70 82 84 86 91 92 81 92 90 87 83 91 94 86 91 99
20 22 25 18 15 15 17 22 14 13 14 14 15 15 15 14 12 10 11 14 16 20 29 51 79 94 86 90 90 88 82 89 83 82 84 84 86 87 89 91 89 90 91 94 95 98 94 97 95
23 26 24 20 14 15 16 20 14 14 13 14 15 15 15 15 14 12 11 13 15 18 25 43 74 95 92 93 90 92 87 91 91 98 96 86 87 85 90 92 93 97 95 88 94 98 95 99 95
28 26 22 20 17 16 20 20 15 14 15 14 14 14 14 14 15 14 12 12 15 18 26 38 64 94 96 95 94 90 90 84 69 89 98 92 86 86 91 95 90 86 92 87 97 96 100 97 94
22 21 21 18 15 18 21 20 16 14 14 15 16 16 16 17 16 16 15 14 14 19 30 43 57 87 95 52 77 82 96 62 54 47 66 97 98 97 91 98 86 78 74 78 99 99 100 100 99
24 26 23 16 13 19 21 20 15 13 13 14 15 16 17 17 17 16 16 17 17 21 28 43 54 75 92 50 70 78 91 65 66 54 74 75 96 92 95 99 86 70 65 81 99 100 100 100 100
27 27 24 16 14 14 17 18 14 11 11 12 12 13 14 15 16 16 17 18 19 20 26 36 51 63 84 90 91 89 97 90 69 71 73 70 86 91 95 95 91 71 66 84 99 100 100 98 99
30 23 19 16 20 24 13 19 13 12 12 12 12 14 16 17 17 17 17 18 20 21 22 30 43 54 72 94 83 86 84 96 74 83 65 96 94 92 88 91 94 78 72 83 98 97 100 100 92
24 16 17 19 23 21 16 21 16 12 13 17 22 32 34 35 36 35 34 29 21 20 22 26 36 49 62 86 78 83 87 92 92 96 94 89 94 98 98 90 95 90 72 79 97 96 98 100 90
18 22 24 23 23 34 23 19 16 15 18 21 29 32 35 38 41 41 39 37 28 24 22 25 38 47 57 82 82 83 93 83 82 87 98 92 88 99 98 89 94 98 97 83 89 98 90 91 95
23 32 52 55 47 39 16 20 15 23 30 31 32 31 36 40 47 53 55 46 35 29 25 25 41 47 56 79 83 88 92 83 83 89 89 88 97 99 99 93 92 92 96 94 97 100 100 99 98
34 35 39 49 40 28 23 26 19 24 32 32 30 37 38 44 52 62 72 66 45 36 29 27 34 51 54 78 84 88 89 86 86 89 80 79 94 100 98 95 99 96 100 100 99 98 95 100 98
53 47 28 56 44 46 32 23 32 30 35 37 35 34 41 47 61 75 85 87 71 44 31 30 49 56 56 81 89 89 92 91 86 89 82 81 88 97 100 96 98 98 99 99 93 100 99 100 100
42 30 53 49 50 41 18 20 55 52 37 33 33 34 49 52 66 89 95 88 78 49 36 56 66 61 74 94 96 94 99 94 91 93 88 90 97 100 96 85 91 98 99 98 100 100 99 100 100
48 52 52 45 51 55 32 51 40 35 30 33 33 57 58 62 71 93 100 96 89 66 56 70 75 72 94 95 99 100 95 96 96 95 94 98 86 100 98 86 97 97 94 100 100 100 99 100 99
28 35 39 50 55 44 52 52 32 27 25 30 51 65 64 67 75 91 100 99 94 97 88 83 92 99 98 98 100 97 97 97 99 96 96 100 98 99 99 88 92 97 96 97 100 98 98 99 100

GFSSGP_850_rhum_111.txt.gz
RH
6 12 16 28 33 28 26 18 12 10 8 8 8 13 13 18 29 58 45 35 34 30 20 17 15 17 21 28 36 41 46 51 53 50 55 60 59 58 51 45 45 50 64 71 72 74 74 74 71
5 14 30 29 28 29 24 14 13 8 8 8 8 9 12 26 38 54 41 30 24 18 15 16 15 16 22 30 36 40 44 44 42 46 57 62 61 60 57 48 48 57 67 64 63 63 60 65 67
6 24 34 36 31 24 22 12 10 8 10 10 9 9 9 24 37 36 22 22 15 15 15 14 13 15 24 33 38 40 40 40 44 50 59 63 65 63 63 52 48 61 64 59 60 57 54 61 65
7 27 33 30 28 19 14 10 9 8 9 9 9 11 15 21 32 35 38 20 16 16 14 13 14 14 22 34 39 41 41 44 50 56 60 66 68 67 67 58 50 62 62 60 63 61 58 61 66
28 33 39 31 25 16 11 9 8 8 8 9 8 10 19 19 24 31 36 36 14 18 14 14 14 14 18 27 36 42 42 44 47 51 59 69 71 70 70 64 54 59 65 63 63 62 58 60 69
31 27 36 33 25 16 11 8 7 7 7 9 9 10 16 24 26 31 36 39 25 18 14 14 15 15 16 22 31 41 44 44 44 44 52 67 73 73 73 67 62 60 64 66 63 65 60 61 70
37 35 34 30 23 18 13 9 8 7 10 9 8 10 16 24 27 27 31 37 38 30 14 14 16 17 17 20 26 34 43 45 46 45 47 58 68 76 75 72 65 64 67 67 67 62 60 64 64
33 38 40 30 24 19 11 9 7 7 10 8 8 11 20 28 30 31 36 39 39 35 18 15 16 17 17 19 23 29 41 47 49 50 51 52 58 70 76 75 71 68 73 64 70 64 62 63 62
28 38 40 35 25 18 11 12 9 7 6 6 8 9 31 30 34 38 40 44 44 42 25 18 17 18 18 19 22 25 37 44 54 55 55 55 58 63 70 77 74 72 74 69 70 67 63 65 65
36 41 35 23 20 18 14 12 10 8 7 7 7 20 25 35 36 42 45 48 51 46 31 23 19 18 19 20 22 25 31 40 48 56 59 59 61 64 67 79 83 78 75 73 72 69 67 68 69
30 38 29 25 22 20 18 16 13 9 10 8 7 20 18 17 31 42 46 45 44 48 52 31 25 21 21 20 21 25 30 37 45 53 60 64 67 69 71 78 84 86 78 78 75 75 71 69 71
25 27 26 25 23 22 21 16 17 14 9 8 8 10 11 10 12 28 43 47 50 50 44 44 40 28 28 22 25 26 31 31 36 42 57 66 73 74 76 78 81 87 89 85 78 74 72 72 72
18 18 21 22 22 22 20 18 18 16 13 9 9 10 10 10 13 16 22 34 46 51 49 45 46 40 38 43 36 31 37 36 49 50 53 69 76 78 77 82 79 83 89 90 87 82 79 76 71
20 17 16 19 21 20 19 17 17 16 14 12 11 11 11 11 11 13 15 19 32 47 48 48 46 41 47 57 46 45 45 46 55 59 59 64 73 78 77 85 89 87 86 88 89 88 80 80 77
25 28 21 18 17 20 18 22 19 16 14 13 12 12 12 12 11 11 10 10 12 24 43 51 49 45 46 46 47 67 80 60 52 48 58 42 62 79 80 87 88 86 92 92 94 90 85 88 85
27 28 36 23 19 18 20 28 19 16 15 15 15 15 14 13 13 12 11 11 9 10 23 48 53 48 48 46 47 51 73 68 55 58 50 42 78 82 83 85 90 91 90 89 90 89 92 92 87
36 45 38 30 21 20 22 26 20 16 16 16 16 15 14 14 14 14 14 12 13 10 10 32 52 52 49 52 62 59 63 75 59 54 50 45 70 79 84 82 91 95 91 92 96 100 98 90 86
44 46 39 35 26 22 24 24 22 17 18 18 16 15 15 15 15 14 14 14 14 12 11 15 41 48 48 52 64 77 78 70 73 67 61 48 36 60 76 74 90 92 96 98 100 100 98 94 90
30 37 38 29 23 24 26 24 22 19 16 16 16 15 15 15 14 15 14 14 14 14 12 12 35 47 60 66 74 71 80 85 85 72 70 57 46 39 59 73 85 91 97 99 99 99 100 99 100
23 26 28 24 20 22 30 47 33 19 17 16 16 15 15 15 15 16 17 15 15 15 13 17 28 40 57 60 60 58 60 92 89 83 75 61 54 43 47 67 84 95 92 93 100 99 100 100 95
20 23 24 25 20 27 49 50 35 25 17 18 17 15 14 14 14 14 16 16 16 16 14 13 26 37 53 57 70 80 89 91 94 90 76 64 58 51 54 69 82 97 100 96 91 98 99 99 98
22 15 17 20 23 64 57 56 23 23 20 16 16 14 15 23 24 26 27 30 32 26 25 33 24 43 53 52 58 65 62 60 89 93 89 80 69 60 61 65 71 89 89 85 89 79 72 100 100
18 16 17 27 72 67 60 45 28 20 18 16 15 31 38 49 51 53 52 50 49 39 40 35 64 54 58 56 46 48 68 64 65 93 95 87 72 74 81 68 72 84 79 81 82 73 73 99 100
17 22 54 53 57 86 41 38 37 22 18 36 44 52 58 57 54 49 46 47 48 51 54 47 35 54 54 54 52 32 50 57 66 92 92 85 74 85 87 68 82 80 82 80 80 74 79 98 100
25 48 82 78 95 78 38 38 35 34 34 45 55 59 63 63 58 49 43 40 40 40 50 55 55 38 61 51 49 31 50 57 58 84 89 82 79 79 73 64 81 98 82 83 87 77 87 98 99
32 48 83 77 90 63 31 43 32 22 51 58 57 61 68 71 67 62 57 55 59 63 66 68 66 55 40 61 52 43 53 70 65 77 85 77 73 73 85 69 85 95 89 82 92 80 91 84 96
36 46 48 81 65 80 45 73 51 54 50 61 60 66 69 74 76 72 71 84 87 93 93 87 68 55 49 41 49 53 57 68 71 82 88 84 77 75 74 71 93 99 100 91 93 82 88 89 93
34 31 62 95 92 95 54 91 86 92 89 77 77 78 82 85 85 87 86 84 88 95 100 100 88 55 45 38 46 50 52 65 67 79 81 85 86 81 65 72 89 95 97 98 100 99 100 96 100
75 68 80 85 90 97 92 100 95 99 94 94 80 85 91 96 98 97 95 86 89 94 100 99 96 79 54 41 50 54 52 62 69 75 79 85 85 81 84 78 90 93 94 92 92 98 99 100 100
81 71 67 95 98 92 100 99 96 95 88 80 83 85 89 95 97 99 99 98 92 93 98 100 100 98 95 96 64 58 62 66 71 77 85 88 86 87 87 88 91 92 90 86 88 96 100 100 100

GFSSGP_850_rhum_114.txt.gz
RH
9 11 15 25 29 34 32 28 18 16 12 7 8 13 16 26 29 42 38 39 42 30 22 22 24 26 26 28 36 42 47 51 52 53 58 58 57 54 42 39 42 46 51 57 62 67 69 71 72
8 16 23 30 39 34 31 22 19 15 11 9 10 14 17 39 45 38 42 43 36 22 19 18 21 23 25 28 35 43 49 52 53 51 58 60 59 58 49 42 43 55 57 54 61 66 62 65 66
7 24 30 44 46 38 28 17 14 11 9 8 10 10 19 39 45 41 40 34 25 17 16 17 18 21 24 29 34 41 47 48 46 48 57 62 61 61 56 47 47 56 58 57 57 58 56 61 66
10 26 34 50 40 29 20 11 10 11 9 7 10 10 23 28 34 35 25 19 15 16 15 14 16 16 20 27 32 37 39 40 44 50 58 63 64 64 63 53 51 60 60 59 60 59 62 69 70
12 38 50 50 44 28 18 15 13 12 10 8 8 11 27 39 30 21 12 14 15 15 14 14 14 14 17 23 29 34 38 41 46 52 59 65 66 66 68 60 56 65 62 60 63 60 59 65 68
31 36 50 46 27 22 19 14 12 12 10 8 10 18 23 32 31 22 11 13 16 14 13 14 15 14 15 17 25 30 37 41 45 48 57 64 67 68 71 66 61 65 69 62 65 60 56 63 72
38 43 43 41 32 26 20 14 13 11 10 9 8 14 24 39 31 23 15 21 17 13 11 14 15 16 16 16 20 27 31 38 42 44 48 58 63 69 72 69 67 66 70 66 65 61 55 57 68
36 47 53 33 27 27 18 15 12 10 10 9 9 13 41 40 40 34 30 25 20 16 12 14 15 16 17 18 19 23 24 30 42 45 46 50 56 67 69 71 67 64 70 71 69 61 55 58 64
32 50 44 36 39 28 20 18 14 12 11 8 10 9 22 38 43 45 42 38 33 23 15 14 15 17 18 19 21 25 24 26 36 47 50 50 54 58 70 70 70 66 70 75 69 65 60 60 67
36 49 40 32 30 29 24 21 18 14 11 9 17 18 22 34 42 45 45 41 38 35 24 17 16 17 18 20 22 24 23 21 25 39 49 52 56 60 64 73 75 73 71 75 71 70 66 64 66
38 41 32 31 27 25 25 24 22 20 20 13 24 33 31 36 40 38 36 30 25 25 35 21 20 19 19 20 22 24 23 22 22 30 43 54 58 63 68 72 79 78 75 70 74 72 70 69 68
19 21 28 30 29 28 29 26 24 19 17 14 14 28 34 36 37 37 37 38 35 35 30 29 24 22 21 22 23 22 23 24 21 22 36 48 58 66 69 72 75 81 79 74 74 73 71 70 70
22 16 15 17 20 27 26 26 25 24 22 20 17 16 34 40 41 40 39 41 41 41 39 36 28 24 21 23 24 24 24 26 23 22 29 40 52 61 70 73 77 79 81 83 82 82 78 75 74
36 30 24 19 17 17 24 25 24 23 21 18 16 15 13 17 28 40 46 45 45 42 43 43 40 35 26 22 26 26 28 28 27 28 28 31 49 59 70 75 77 82 83 82 81 86 84 83 81
22 36 34 30 25 21 18 23 26 22 20 18 16 15 14 12 11 15 24 39 38 42 40 44 47 41 38 29 28 33 31 38 37 33 36 39 45 50 67 74 78 84 88 86 86 88 93 94 88
23 27 36 27 27 25 22 28 19 19 20 19 16 15 14 15 14 13 11 11 11 14 46 47 48 47 43 39 36 33 38 39 47 41 43 41 45 49 67 78 81 87 91 90 90 86 87 90 91
32 31 31 33 26 28 27 27 19 18 19 19 19 16 15 15 14 14 14 13 11 11 12 30 44 49 47 46 40 42 42 43 46 49 46 46 48 40 57 73 78 89 92 94 94 90 88 90 92
31 35 37 46 32 30 31 28 22 19 20 20 18 17 16 16 15 14 14 14 14 14 12 15 25 35 45 52 55 56 66 69 65 59 50 54 50 45 48 71 81 86 99 100 97 98 99 97 97
29 29 32 33 29 30 32 29 25 23 20 21 21 19 18 17 16 14 14 14 14 14 14 15 16 23 48 64 61 70 64 61 73 75 63 66 60 52 47 65 73 85 100 98 99 98 94 96 99
34 33 29 24 24 25 28 52 47 40 37 25 19 19 18 18 16 15 14 14 14 14 15 15 15 17 30 57 58 67 66 65 68 77 71 71 69 58 47 51 56 70 92 99 91 94 95 97 96
43 36 29 25 19 18 28 55 51 41 33 28 24 18 16 16 15 22 23 26 26 25 22 19 20 15 23 44 65 56 58 59 66 83 81 74 80 71 53 54 59 62 81 91 94 93 98 94 97
77 34 25 23 26 38 56 87 57 36 27 28 21 19 24 30 46 53 48 43 44 45 46 35 51 64 46 47 65 60 58 50 42 45 64 70 82 74 64 56 66 67 80 94 95 93 99 100 98
54 54 31 22 26 52 52 94 65 29 24 25 41 69 76 74 64 63 56 54 52 51 53 57 84 96 90 76 66 55 64 53 46 45 52 72 81 81 73 61 76 80 79 90 96 100 100 100 99
38 54 45 65 80 81 60 78 45 44 44 52 69 75 79 76 67 62 55 47 45 47 50 52 54 72 86 83 68 63 58 62 63 59 61 68 87 87 83 79 73 88 81 87 93 94 95 93 87
56 70 87 76 90 75 47 71 52 59 72 74 78 80 84 83 73 57 47 42 40 38 42 51 54 55 64 77 71 65 58 54 51 59 65 66 87 92 86 84 74 97 90 93 88 92 90 78 92
48 54 68 71 87 73 40 54 43 83 80 79 83 88 90 91 87 76 65 60 55 58 61 59 61 66 66 60 67 68 65 58 57 56 55 60 78 78 80 74 68 98 99 96 95 95 86 76 98
63 65 48 76 87 82 52 76 79 75 85 85 86 92 96 99 100 93 77 74 69 75 87 95 97 86 77 66 55 58 63 76 63 54 51 56 74 83 77 80 79 93 100 100 100 100 94 88 98
73 46 70 90 84 94 73 96 97 98 98 94 88 91 95 98 100 100 94 84 79 85 93 96 99 98 100 77 54 46 43 63 61 61 56 50 58 82 83 82 82 87 97 98 99 100 100 89 96
61 63 80 70 93 99 95 97 100 100 100 100 98 97 98 98 100 100 100 99 96 94 93 98 100 99 100 97 58 53 49 65 64 58 59 57 60 77 82 83 82 84 92 100 99 98 98 93 94
81 68 66 82 89 93 98 98 100 100 100 100 100 100 100 99 100 100 98 99 100 100 95 97 98 100 100 100 98 92 59 70 64 62 62 62 70 78 78 85 74 75 95 93 98 98 100 98 99

GFSSGP_850_rhum_117.txt.gz
RH
11 11 18 24 24 38 35 29 20 16 11 9 9 12 17 28 36 39 35 30 38 32 31 37 39 40 42 43 46 45 49 52 50 55 56 56 53 43 39 39 43 48 56 59 61 64 65 70 70
10 13 21 29 30 28 29 26 21 18 12 8 8 10 17 36 46 44 41 38 36 31 25 28 32 32 34 35 40 43 46 50 52 56 58 57 57 50 42 42 45 49 54 59 63 66 66 66 64
8 18 29 45 51 28 20 20 15 12 9 10 9 9 18 36 40 35 40 38 39 23 20 20 25 29 30 29 35 40 44 49 50 53 59 60 60 56 47 46 50 60 59 58 60 57 58 61 61
8 22 35 55 47 41 21 14 12 13 10 9 9 11 16 30 29 32 37 33 31 19 17 16 21 27 31 29 33 38 42 45 44 45 56 61 62 62 54 50 53 63 63 60 60 54 56 62 65
13 32 46 62 57 40 22 17 15 16 13 11 10 11 20 30 34 33 29 18 18 16 16 17 18 23 28 26 31 35 37 36 38 42 56 62 64 64 62 54 53 63 62 61 60 58 63 68 65
20 40 60 45 22 23 22 18 19 17 14 12 10 12 34 39 35 33 18 18 15 15 15 15 17 18 22 23 29 32 33 35 39 44 54 62 65 66 68 61 55 63 64 63 63 60 62 65 65
36 51 52 45 32 28 22 16 19 16 15 13 10 13 17 41 34 16 17 16 16 15 14 14 15 18 20 23 27 31 32 33 37 44 49 58 66 69 71 66 60 59 65 63 63 60 60 65 66
37 49 57 38 26 26 19 16 14 13 13 10 11 15 41 26 37 21 18 17 17 15 14 14 14 16 18 22 28 30 32 30 35 41 44 49 60 68 72 70 65 60 63 65 64 62 59 64 67
35 55 43 36 33 27 20 22 18 16 15 15 12 13 16 19 39 29 20 20 18 16 16 15 14 16 16 19 24 29 32 33 36 39 43 46 51 61 70 71 67 65 63 68 64 62 59 65 67
37 60 39 33 27 30 29 26 26 21 20 17 15 14 30 37 40 35 36 28 22 16 16 16 16 16 18 20 22 24 27 32 36 37 39 44 48 53 59 68 72 70 65 69 66 65 64 64 63
42 41 33 31 30 32 32 32 27 25 27 21 20 16 43 47 45 36 36 27 17 16 17 15 16 17 17 19 20 20 22 26 34 38 37 41 48 54 59 68 74 76 73 72 73 66 68 65 65
19 21 25 31 29 29 35 31 31 28 27 24 21 21 42 76 48 42 37 32 28 24 18 17 16 17 18 18 19 20 20 23 27 32 37 38 45 52 58 62 69 77 77 74 73 69 69 70 70
23 16 14 17 17 16 16 21 30 28 25 26 24 22 21 40 72 46 37 31 29 29 25 22 18 17 16 18 20 20 21 22 24 28 32 35 37 43 54 62 68 76 81 80 75 71 72 71 73
32 21 20 20 24 28 23 19 17 18 22 24 23 21 19 18 63 68 61 43 35 32 33 34 30 24 20 19 19 19 21 22 25 28 28 32 35 39 49 61 68 75 81 83 83 79 78 80 79
21 25 22 19 20 31 26 28 24 17 17 22 24 22 20 18 27 57 52 43 37 38 38 39 40 40 36 26 22 21 21 22 24 27 27 32 34 37 45 58 67 74 80 84 86 89 90 92 88
26 26 31 21 24 23 32 40 26 24 19 19 21 21 20 18 17 19 33 42 42 42 43 39 43 46 44 40 33 28 26 24 27 28 28 32 36 38 44 58 61 74 81 85 85 87 91 93 93
32 36 32 26 18 25 28 38 27 24 22 20 20 20 21 19 16 14 13 18 32 42 43 43 40 45 50 49 46 43 39 35 34 34 35 36 38 44 42 50 60 74 85 90 93 92 91 92 92
47 36 31 33 24 31 34 36 29 26 24 23 21 20 19 20 18 16 15 15 14 13 13 13 14 18 33 55 58 59 56 60 51 44 44 42 43 44 44 44 60 79 91 99 99 97 97 94 91
40 44 44 33 26 28 25 28 27 24 33 29 22 20 21 20 17 17 16 16 15 15 15 14 14 14 20 51 59 65 56 56 66 64 59 54 53 51 48 46 58 80 91 99 95 98 99 99 94
34 52 51 39 31 31 27 24 22 23 27 31 36 30 21 20 18 20 20 20 19 20 19 18 18 16 16 20 28 56 56 56 60 69 78 72 61 57 53 52 51 70 94 98 98 94 90 88 93
33 33 44 57 42 29 26 26 19 18 28 33 36 34 29 24 27 27 30 30 32 30 30 27 20 21 20 21 29 62 74 75 58 58 64 73 69 69 60 57 51 59 79 100 97 99 87 87 89
56 36 34 59 63 55 42 56 51 43 39 34 29 66 66 73 68 50 46 60 61 63 56 43 30 35 44 59 77 78 52 56 48 45 49 57 69 68 69 64 58 58 71 88 96 100 99 86 86
62 34 38 56 72 48 32 71 51 48 40 67 81 85 88 89 85 77 69 73 67 69 66 73 79 67 74 98 91 70 65 62 61 53 52 56 64 67 75 72 66 54 64 82 92 91 93 96 91
40 54 60 65 63 71 36 58 67 92 92 86 82 88 92 91 90 87 85 80 70 64 60 64 76 90 99 99 99 98 71 70 53 54 58 57 57 66 79 82 76 61 58 67 82 94 97 96 96
50 62 88 81 90 82 49 67 60 94 92 93 93 94 98 100 100 99 96 87 84 75 59 53 56 66 83 98 100 100 91 66 63 53 61 82 55 57 64 78 86 78 67 71 83 100 99 100 99
47 63 82 70 74 68 55 86 100 95 94 87 92 95 97 98 99 100 100 99 94 91 83 72 56 51 59 70 87 98 100 92 72 54 48 66 49 48 57 73 92 88 87 85 99 99 100 100 99
60 65 44 67 64 91 67 100 94 94 96 100 96 98 99 100 100 100 100 100 99 95 95 92 96 99 98 71 66 63 75 84 72 70 64 57 53 50 56 70 87 93 99 99 99 98 98 100 99
57 65 78 83 71 83 90 86 97 95 100 100 99 98 100 100 100 100 100 100 100 100 98 96 95 99 98 99 89 64 58 56 68 67 59 59 62 57 59 65 87 93 98 100 99 98 97 99 100
77 85 75 61 70 96 96 97 100 99 100 99 100 100 99 100 100 100 100 100 100 99 96 95 96 98 99 99 98 90 62 54 47 58 62 56 63 61 61 60 72 81 90 99 99 98 93 95 99
83 67 63 76 73 91 93 98 100 100 100 97 98 99 98 99 100 100 100 100 100 100 100 100 97 98 99 100 100 98 99 89 92 64 58 62 60 64 64 64 68 80 88 94 99 96 90 92 99

GFSSGP_850_rhum_120.txt.gz
RH
15 11 12 18 25 37 30 20 24 16 13 10 11 10 13 19 44 48 32 37 20 22 39 49 49 50 50 48 45 42 45 46 47 50 52 50 43 38 39 43 47 53 56 57 59 64 66 69 68
12 10 18 27 23 19 18 28 22 18 11 9 8 10 20 28 36 34 40 29 30 25 37 46 47 48 48 49 47 45 47 48 48 52 55 55 49 41 41 42 47 54 55 61 64 66 67 64 59
12 13 22 40 45 21 13 16 20 13 10 10 10 10 10 30 36 36 26 26 30 31 34 41 40 45 46 47 47 45 46 50 49 51 55 57 55 46 43 45 48 52 55 60 67 66 66 60 54
10 23 32 47 44 39 17 15 13 14 10 11 11 12 8 12 28 31 29 31 31 32 28 30 32 36 42 42 44 44 47 50 51 50 53 57 59 54 47 48 53 59 57 55 54 54 58 57 60
15 26 31 57 52 40 28 20 19 17 15 13 13 13 10 14 31 30 34 33 29 26 24 25 25 29 37 40 42 44 46 49 50 48 51 57 60 60 54 49 57 61 58 56 55 50 56 61 62
18 41 53 39 27 30 23 18 21 21 17 14 12 12 19 18 38 35 36 28 31 20 21 22 24 28 34 38 40 40 42 45 45 43 48 55 60 63 61 55 58 62 58 58 57 54 59 59 57
27 54 48 43 34 28 21 17 19 18 17 16 11 13 11 11 23 41 40 32 27 21 18 20 22 28 32 36 37 35 38 40 40 43 48 53 59 64 66 62 59 64 62 58 58 55 56 55 56
37 49 53 37 30 29 21 18 16 16 16 13 12 15 14 18 26 38 46 35 27 21 19 20 19 22 28 33 36 35 36 39 42 48 50 53 60 64 67 67 62 61 65 60 60 57 54 52 57
38 57 54 40 34 29 21 25 21 22 24 20 17 15 17 16 17 46 42 37 27 22 20 20 20 23 26 28 31 34 36 40 44 49 52 54 57 62 66 68 67 62 63 65 62 60 55 55 58
40 66 42 36 29 30 31 32 31 28 27 25 23 20 20 24 45 46 37 28 20 20 19 18 19 20 23 26 27 29 33 36 40 43 47 52 55 57 60 66 70 67 64 68 67 65 58 58 59
41 47 36 34 32 37 36 32 30 33 34 26 25 23 25 33 79 78 43 17 14 16 17 15 17 19 22 21 23 22 27 30 33 36 42 49 55 58 61 66 68 71 71 70 73 70 64 61 62
21 20 23 24 19 22 22 20 23 20 23 26 27 26 25 24 28 83 65 25 18 17 14 15 17 18 20 21 19 19 21 23 27 27 35 45 52 56 59 60 65 68 70 70 72 73 71 67 65
44 28 25 23 20 19 22 28 24 21 20 18 18 21 22 22 22 23 58 63 51 22 17 17 18 17 19 22 20 20 20 20 22 23 26 35 46 52 55 58 64 67 70 74 73 74 76 74 71
27 24 24 21 21 19 20 21 26 24 22 19 17 18 20 21 21 20 26 62 62 34 24 19 18 18 18 21 20 20 20 21 22 22 21 25 32 46 51 56 60 65 70 74 76 75 76 76 77
24 29 24 20 19 21 23 34 29 19 21 24 22 20 17 17 21 22 20 33 57 48 39 30 24 22 19 19 20 20 20 20 21 24 24 27 26 32 47 52 58 63 69 72 81 84 87 84 84
28 29 32 21 21 19 20 22 20 24 26 26 24 23 20 17 17 20 20 23 47 61 48 40 39 36 30 26 23 22 21 21 22 24 28 29 29 29 39 48 56 64 72 77 81 87 92 92 92
34 41 33 27 20 22 25 28 24 24 26 27 26 24 23 20 18 18 20 19 34 54 50 43 44 44 44 42 42 39 29 26 25 27 30 31 32 32 34 39 49 66 76 81 84 87 92 96 97
56 45 43 42 34 34 37 35 24 20 19 26 25 25 26 22 20 16 18 18 17 48 47 43 42 43 48 54 55 51 48 40 33 30 30 32 34 39 39 41 47 60 79 82 83 89 93 95 97
39 45 49 39 34 39 43 38 30 25 23 20 29 26 25 28 22 21 20 20 18 21 43 50 53 46 50 56 60 58 54 50 49 42 41 40 39 48 47 48 52 55 69 80 83 95 96 96 98
39 42 43 35 33 36 42 47 33 26 22 19 20 19 26 27 27 28 25 22 19 18 17 26 52 50 40 42 36 51 53 57 58 54 55 53 51 56 52 52 54 49 64 84 90 93 91 88 81
51 52 47 40 31 31 46 57 40 26 22 17 15 32 51 51 56 56 56 43 28 24 22 19 18 17 25 33 44 74 78 77 72 65 63 67 61 57 55 53 59 59 57 75 97 96 94 89 86
73 44 44 46 48 74 57 85 50 31 29 83 86 92 97 97 92 80 81 80 53 47 44 36 25 19 22 40 47 59 65 66 52 58 63 68 68 51 57 57 62 59 61 61 91 99 96 97 91
59 51 52 55 56 58 66 84 43 41 87 87 82 96 100 100 100 97 90 94 59 66 78 64 57 45 42 73 95 56 63 64 57 60 57 58 56 64 76 67 71 73 75 71 65 97 98 98 98
50 58 59 61 68 84 59 59 63 98 99 94 92 96 99 100 100 100 100 99 93 90 92 86 99 100 99 89 94 98 99 88 76 72 66 65 59 56 60 62 66 70 74 73 72 91 91 98 98
59 69 86 87 94 80 46 50 96 100 98 98 96 98 100 100 100 99 99 100 100 98 90 79 88 98 100 99 99 99 100 100 78 74 72 68 64 58 57 63 60 65 75 79 69 82 89 90 90
61 67 77 74 74 89 62 83 100 100 98 100 100 100 100 100 100 100 100 99 100 100 99 89 87 89 86 96 98 100 99 100 97 84 80 73 64 54 45 64 67 59 67 81 78 73 90 92 97
46 69 44 59 64 75 85 99 82 82 92 99 98 99 99 100 100 100 100 100 100 100 100 100 98 96 90 88 85 84 95 98 98 98 99 73 67 58 44 46 57 56 62 79 89 84 90 97 96
52 58 81 81 92 83 94 95 94 92 97 97 97 98 99 99 100 100 100 100 100 100 100 100 100 99 99 96 96 92 81 78 77 89 90 81 75 64 47 62 59 61 71 77 94 94 95 98 98
82 82 82 75 75 96 95 96 100 98 100 98 98 99 99 99 99 99 100 100 100 100 100 100 99 100 100 100 98 98 98 95 76 68 64 83 76 65 61 61 62 63 68 73 92 99 97 97 98
86 72 71 86 68 92 94 98 100 100 99 98 98 99 98 99 98 98 100 99 100 100 100 100 99 99 100 100 100 100 98 98 99 100 99 100 100 88 76 71 72 68 66 67 83 100 98 97 98

GFSSGP_850_rhum_123.txt.gz
RH
20 13 11 17 13 17 16 9 19 14 15 12 11 10 9 14 34 25 29 29 29 20 25 38 45 47 49 49 46 45 44 42 43 44 45 43 42 43 43 45 46 52 54 58 59 62 68 72 70
16 12 19 22 10 8 6 15 13 11 11 9 8 11 15 14 21 16 25 29 23 21 26 35 45 49 51 50 48 47 46 43 41 46 48 46 41 39 42 40 43 48 54 55 59 63 66 67 65
15 14 20 22 18 7 6 8 9 12 11 12 11 10 10 18 30 36 33 39 21 26 26 33 43 50 52 52 51 49 48 47 45 48 52 50 44 40 40 41 43 48 51 54 60 65 65 62 59
13 21 27 21 18 18 10 12 13 12 11 12 13 9 8 9 16 38 39 28 25 29 32 33 42 50 52 53 54 51 51 50 50 51 54 54 50 44 42 44 46 50 51 52 60 60 59 57 56
15 22 17 32 26 27 24 20 19 15 15 14 14 10 10 18 14 29 42 37 29 30 31 36 43 48 51 54 54 54 55 54 51 52 54 56 56 50 46 46 53 55 53 51 51 50 53 52 57
18 35 24 21 19 23 18 16 18 18 16 16 14 14 13 11 18 34 42 41 38 32 32 37 44 46 49 52 52 55 56 55 53 51 53 56 58 57 52 48 55 57 55 55 53 49 49 51 53
16 26 24 29 25 22 18 18 17 16 16 15 13 12 11 19 16 16 48 43 39 36 34 39 44 47 49 48 49 51 53 53 52 50 50 56 60 61 59 54 55 60 57 57 55 50 48 46 47
34 31 36 29 24 24 19 19 18 18 17 18 15 14 17 22 19 16 24 49 40 38 36 36 38 41 44 48 48 50 52 51 49 45 48 55 61 64 64 60 58 64 61 58 58 51 46 47 49
38 38 38 31 29 26 23 29 27 28 26 27 24 22 23 22 23 25 38 54 43 37 39 38 32 34 36 40 43 49 52 52 45 44 49 58 63 68 69 67 63 63 66 60 60 54 50 50 53
32 44 36 30 27 29 34 32 29 29 28 28 28 25 26 30 32 30 63 60 46 33 31 34 31 30 31 34 40 48 50 51 47 47 51 58 62 66 69 72 70 68 67 67 63 59 53 54 54
38 32 35 32 32 23 22 21 24 23 24 28 27 26 25 24 29 52 28 69 61 56 45 34 30 28 27 31 39 42 48 47 47 49 50 52 59 66 70 75 77 77 75 72 70 66 57 55 58
19 22 22 20 22 20 19 21 22 22 22 22 22 20 20 19 19 23 39 25 65 54 38 38 41 33 27 30 36 38 39 43 44 43 45 50 53 58 63 69 73 76 77 73 71 68 62 60 59
36 33 24 22 21 19 17 16 17 18 19 17 18 22 21 21 21 19 29 41 31 59 39 36 36 35 28 28 27 34 30 35 41 41 42 44 46 46 52 61 66 72 76 77 74 73 69 66 64
24 23 23 22 20 20 18 15 17 14 15 18 18 16 16 16 18 16 15 24 23 38 43 36 35 33 32 28 24 27 28 25 31 34 34 38 40 38 43 51 58 68 76 78 80 76 75 74 71
26 27 19 16 18 17 18 12 15 20 16 19 23 24 26 26 25 22 13 15 23 24 42 33 33 33 30 30 28 22 26 23 22 25 28 32 32 36 39 44 51 57 70 78 81 83 83 81 79
26 27 27 19 17 17 19 19 12 15 23 24 23 24 22 23 25 25 21 15 18 21 28 46 35 30 32 25 32 27 26 27 22 22 27 29 30 30 35 41 46 52 62 72 80 85 88 87 85
34 29 29 25 20 22 23 25 20 23 25 26 26 22 19 22 23 24 23 21 18 20 21 27 52 35 28 28 29 33 29 30 27 24 28 30 32 32 34 39 46 55 59 67 79 87 90 92 91
29 32 30 34 26 26 28 29 24 25 26 26 28 26 23 17 21 25 25 24 20 19 19 26 42 52 43 37 37 35 37 37 37 29 26 31 34 36 40 42 43 55 59 64 76 85 90 93 95
30 34 35 29 25 29 31 30 28 25 26 26 28 27 24 18 21 28 22 26 23 20 19 47 68 66 62 62 53 48 45 44 42 39 34 33 36 37 43 42 44 49 57 58 69 81 89 97 97
39 44 43 34 29 31 31 33 27 24 26 31 31 26 23 22 23 51 44 38 32 25 21 42 61 71 69 68 61 64 59 59 57 54 47 41 37 34 40 39 40 44 49 59 67 78 90 98 84
40 52 50 48 35 32 38 34 33 30 30 60 80 84 90 92 88 77 75 75 56 45 36 26 39 61 71 68 71 63 74 76 71 62 60 55 50 45 44 41 48 44 49 50 56 69 92 97 82
53 45 45 46 49 56 38 50 38 44 50 71 83 89 97 100 100 100 96 96 91 72 60 45 25 28 50 74 66 70 54 52 51 46 61 66 64 60 54 46 60 62 58 59 55 62 97 92 88
55 44 46 50 54 56 38 57 40 58 71 96 94 94 98 100 100 100 100 100 100 100 98 83 56 31 24 26 93 99 99 83 60 45 52 57 59 63 66 60 68 72 70 69 66 67 90 97 92
42 52 52 57 62 73 52 70 62 92 100 97 98 100 100 100 100 100 100 100 100 100 100 100 84 60 49 43 60 99 99 99 92 74 73 65 66 66 72 59 58 68 71 72 71 75 76 84 95
54 63 57 61 84 58 42 55 97 98 100 100 100 99 99 99 100 100 99 100 100 100 100 100 100 99 95 93 99 96 99 99 99 100 98 92 80 68 65 62 57 55 57 58 71 82 80 73 87
62 54 48 54 47 44 36 88 98 100 98 99 100 99 98 99 100 100 100 100 100 100 100 100 100 100 100 100 99 99 99 99 99 99 100 99 77 58 62 58 61 52 41 47 50 70 91 81 77
51 57 40 52 47 63 73 98 100 83 94 98 98 98 99 98 98 100 100 100 100 100 100 100 99 99 99 91 99 98 100 100 99 98 99 100 98 88 68 57 59 60 53 48 42 62 88 89 78
54 46 71 63 82 89 86 93 91 85 94 96 96 97 98 98 98 99 100 100 100 100 100 100 99 100 99 58 67 88 74 76 90 98 99 98 99 99 76 65 73 68 57 45 59 71 82 93 88
75 72 64 63 75 86 82 93 97 95 96 96 97 98 98 98 98 97 99 100 100 100 100 100 100 99 100 100 99 100 100 99 99 98 92 84 87 100 98 95 84 72 61 54 59 63 69 84 94
68 71 64 79 68 78 89 94 99 98 97 96 97 98 98 97 97 97 98 98 98 100 100 100 99 96 98 98 98 99 100 100 100 99 99 99 100 99 99 100 100 90 63 59 64 65 71 80 91

GFSSGP_850_rhum_129.txt.gz
RH
19 24 18 14 10 6 6 4 2 3 3 6 7 6 5 4 7 12 20 49 52 44 49 34 39 44 42 39 39 48 57 60 61 61 60 56 59 60 61 60 55 47 50 58 59 61 64 68 70
28 21 18 13 11 9 6 4 4 3 4 5 5 4 5 7 8 14 20 43 54 49 71 40 42 44 43 40 39 46 54 57 60 59 54 52 57 59 63 61 55 47 51 56 62 63 66 72 71
26 22 17 12 12 10 8 5 5 4 5 5 6 6 5 5 13 25 33 46 54 54 74 61 43 45 45 43 41 42 46 47 47 50 52 52 54 58 58 58 52 48 51 53 61 62 66 71 67
24 19 17 16 13 9 7 5 6 6 7 8 8 8 7 7 22 27 41 62 60 57 69 73 48 46 46 45 43 43 45 45 44 45 49 51 52 50 48 49 49 51 50 52 54 61 64 67 62
23 18 17 16 14 10 8 8 9 9 9 10 10 11 11 11 20 33 44 69 66 64 68 78 56 50 49 48 46 46 48 49 48 49 51 51 49 46 45 44 48 51 52 52 55 56 64 59 56
18 15 17 15 12 9 9 10 10 11 11 11 11 11 11 16 29 37 51 65 72 70 75 82 61 56 52 51 49 48 49 51 52 52 53 53 49 46 44 45 48 53 53 53 54 57 55 55 53
14 12 14 12 11 11 11 11 11 12 12 12 14 13 12 15 25 33 48 71 88 83 90 98 64 60 59 57 54 52 52 52 53 54 54 54 52 48 46 48 50 54 56 55 56 51 52 52 58
17 12 12 10 10 11 9 12 12 12 13 16 15 13 13 18 21 19 27 52 85 96 94 98 88 64 63 62 60 59 58 56 55 56 56 57 56 53 51 51 53 57 57 57 56 54 50 56 56
16 14 11 8 8 8 10 12 12 13 14 13 14 18 17 20 20 19 19 21 45 84 94 97 99 99 76 68 62 63 64 63 61 59 59 60 61 59 58 56 57 61 60 58 56 55 58 55 56
12 10 8 7 12 13 15 14 13 12 10 11 12 12 18 18 16 16 16 17 19 39 82 90 96 99 99 93 91 65 65 66 66 64 61 63 84 91 95 80 64 68 64 64 59 60 59 60 70
8 10 7 8 11 16 14 9 8 8 7 7 8 10 11 10 9 10 12 15 16 18 48 82 89 95 95 85 85 95 94 82 74 69 76 67 95 95 95 96 86 77 71 69 64 60 61 63 86
9 5 6 8 8 10 10 8 8 7 7 7 7 8 7 8 10 10 10 12 14 16 26 66 80 91 90 79 78 80 85 92 92 96 92 94 94 92 97 95 89 97 95 96 87 94 89 91 90
9 8 9 11 10 9 9 8 8 7 7 7 7 8 10 10 10 11 12 13 14 13 16 30 70 81 87 90 75 79 82 80 81 86 91 95 89 91 93 92 90 94 99 94 91 84 88 94 99
9 11 10 9 9 8 8 8 9 7 7 8 11 10 11 12 12 12 12 13 15 17 16 20 51 77 86 89 82 79 84 80 88 97 92 89 89 86 93 90 90 91 96 88 89 84 86 96 89
14 13 10 8 8 8 10 9 7 9 10 10 10 11 11 12 12 11 11 13 13 13 18 19 33 71 83 89 89 84 78 79 91 96 85 59 83 87 87 94 96 92 91 91 87 86 85 87 89
13 12 14 10 10 9 11 13 8 10 10 10 10 11 12 13 11 11 12 14 14 12 15 19 20 47 79 92 91 86 80 82 79 89 95 52 49 91 91 92 91 98 96 86 91 93 91 91 89
10 12 11 8 7 9 11 13 9 9 10 10 11 11 11 11 12 13 15 17 16 12 12 16 18 22 64 87 96 92 84 83 79 81 88 68 44 62 94 71 68 90 97 90 86 93 94 94 87
12 11 10 10 8 9 12 12 9 9 9 10 13 20 24 27 30 38 38 32 21 20 24 42 37 29 41 79 87 93 85 83 82 76 87 87 66 44 87 92 98 64 92 90 73 86 76 99 89
14 14 13 10 9 13 15 14 11 10 13 29 32 38 41 44 53 56 57 56 50 52 63 64 62 46 38 74 83 92 85 83 81 74 79 82 94 35 42 69 83 48 57 62 55 72 100 95 97
18 18 17 13 11 14 14 14 11 10 29 34 37 40 46 55 67 69 74 77 72 67 64 72 70 51 38 64 75 86 81 81 70 69 67 38 58 44 28 36 83 54 57 68 72 69 99 86 85
18 19 20 19 16 15 15 13 10 11 28 33 39 46 50 58 70 88 89 94 97 94 93 90 85 76 44 61 77 72 77 74 77 77 77 72 55 61 35 32 59 60 46 61 65 98 98 87 70
26 21 23 22 22 20 14 22 20 27 31 38 47 52 63 72 77 93 100 99 99 100 98 98 99 98 96 89 85 70 79 72 70 72 72 76 87 93 91 51 60 82 69 71 90 90 97 100 93
26 26 27 26 26 24 15 16 33 36 52 55 59 63 73 82 84 94 100 99 99 98 100 99 99 100 97 93 100 95 77 70 66 70 73 84 87 96 96 96 96 92 92 90 90 77 95 93 96
25 30 28 27 26 32 17 22 40 78 87 74 71 71 81 89 97 94 100 99 99 100 99 100 100 99 100 99 100 83 92 83 78 85 84 95 99 97 99 98 98 96 95 96 91 89 83 64 80
32 36 44 35 36 32 13 19 76 71 72 73 83 82 84 89 99 99 100 96 97 100 98 100 99 100 100 100 100 100 100 100 98 79 86 96 96 99 100 99 98 96 96 94 98 95 84 66 70
31 35 41 38 27 26 21 38 90 57 67 71 86 82 90 96 99 99 100 98 98 99 100 100 99 100 100 100 100 100 99 92 98 77 76 99 100 100 99 97 99 99 100 100 100 99 95 87 72
43 43 30 39 36 44 44 87 61 48 62 90 85 85 97 95 97 98 99 96 97 97 100 100 100 100 100 100 100 98 98 100 99 92 100 96 98 100 100 100 98 98 99 100 100 100 98 99 97
35 35 55 46 59 55 34 77 76 75 83 81 94 96 97 93 95 96 96 96 97 96 98 100 100 99 100 100 100 100 98 100 100 100 98 100 99 99 99 99 99 95 97 99 94 98 98 99 99
49 53 53 40 43 60 58 84 78 91 86 92 92 97 96 95 96 97 96 96 96 97 100 100 100 100 100 100 100 100 98 99 98 97 97 100 96 86 83 92 99 99 99 100 93 98 100 100 98
38 46 57 58 51 55 69 91 76 89 79 79 86 96 99 96 97 97 97 97 96 97 97 100 100 100 100 100 99 99 99 100 100 100 98 98 99 100 100 98 100 100 100 100 98 99 98 98 99

GFSSGP_850_rhum_132.txt.gz
RH
20 24 21 16 14 11 8 6 3 2 4 6 6 6 4 4 4 19 36 39 48 54 45 43 29 39 40 36 34 32 40 54 59 61 61 60 56 57 54 56 51 50 55 58 61 63 68 65 65
22 24 18 15 16 13 9 5 3 4 4 4 4 4 4 5 14 16 29 37 47 53 56 50 37 44 44 37 36 34 39 54 60 62 62 58 57 58 58 58 55 51 56 58 61 61 68 70 69
22 24 18 16 15 14 10 5 4 4 4 6 6 6 5 5 18 24 33 51 54 50 62 54 44 49 47 39 38 38 38 45 56 60 58 56 54 56 59 59 55 52 55 58 60 64 66 73 70
26 20 17 19 17 11 9 5 5 6 7 8 8 8 9 13 18 32 40 57 60 52 65 64 54 52 49 44 43 42 41 42 46 50 48 51 53 54 56 54 50 49 55 59 59 66 67 67 67
22 19 20 19 16 12 9 8 7 9 9 9 10 10 11 20 27 32 49 62 61 60 64 72 62 56 51 48 46 45 43 42 42 43 45 47 52 54 53 50 45 46 50 57 59 65 66 64 59
18 16 19 18 13 10 9 9 10 10 10 10 11 11 12 22 24 28 43 47 74 69 70 75 75 58 53 51 48 46 46 45 46 46 47 48 50 51 50 48 47 48 50 55 60 64 66 60 52
16 14 16 14 12 10 8 10 10 10 11 12 14 13 12 20 20 19 20 46 53 77 83 87 87 71 57 54 52 50 49 50 50 49 50 52 52 52 51 49 49 54 54 54 58 61 59 56 54
15 14 16 12 11 10 7 10 11 11 11 14 13 13 16 16 19 19 19 20 60 60 87 90 95 74 61 58 56 55 53 53 53 52 53 53 54 54 52 50 53 57 59 59 59 57 53 52 52
14 15 14 11 8 12 12 12 11 12 11 10 10 13 15 15 18 16 14 16 18 42 72 81 95 82 62 61 59 59 58 57 56 56 57 58 58 56 54 54 53 58 63 64 61 57 52 52 50
11 14 12 7 8 12 13 13 10 8 7 7 7 9 8 9 10 9 9 10 13 17 24 68 76 93 82 70 63 63 64 62 60 60 59 59 60 59 58 57 56 60 70 71 64 61 56 54 50
6 10 8 6 7 8 8 9 8 6 6 6 7 7 7 7 7 8 10 10 11 14 17 43 67 76 90 88 94 75 67 65 64 63 62 62 63 69 69 76 67 66 68 68 67 62 59 56 62
7 6 6 5 6 7 9 9 8 7 7 7 7 7 6 7 10 10 11 12 13 14 14 16 64 69 77 90 88 88 78 68 68 66 66 63 66 79 84 82 79 78 69 70 68 67 61 59 83
8 7 7 7 9 8 7 7 8 7 7 7 7 8 10 10 11 11 11 12 12 13 15 17 19 70 70 71 82 86 85 81 76 72 71 77 74 80 80 84 79 77 81 79 80 84 77 70 76
8 8 9 8 8 7 8 7 8 8 8 8 9 10 10 10 10 12 12 12 12 12 13 15 18 20 56 70 79 78 79 84 85 81 80 78 81 81 84 84 87 78 83 80 84 85 87 80 84
12 13 9 8 8 8 8 10 8 8 10 10 10 9 9 10 11 12 12 14 14 14 14 14 12 17 27 62 71 76 78 77 85 86 88 87 78 81 83 77 84 82 82 88 82 85 86 77 81
14 13 15 9 8 8 9 12 8 8 8 8 9 9 10 14 18 37 42 44 39 40 36 20 14 13 18 58 59 65 75 86 75 86 77 84 89 74 94 87 76 80 81 87 81 82 84 81 78
12 15 12 9 7 6 8 10 8 8 8 9 11 28 32 35 38 47 52 56 50 47 52 51 30 43 44 42 86 65 75 75 83 86 88 69 72 70 86 94 83 80 87 96 89 79 82 82 81
14 12 10 9 6 7 9 10 10 9 9 21 29 33 35 39 44 50 51 62 62 50 60 59 61 58 52 49 51 88 70 78 80 83 90 78 59 64 72 91 86 93 81 83 82 82 86 87 84
13 11 11 9 8 11 12 12 10 9 20 30 32 37 40 43 48 54 64 63 71 80 65 64 67 74 71 63 63 75 84 71 82 88 82 84 72 61 63 88 80 87 88 82 81 82 86 91 85
15 15 15 12 10 12 13 13 11 22 29 36 40 44 47 54 58 62 71 83 87 94 96 78 72 74 52 45 75 88 82 83 70 89 81 83 84 80 54 72 79 72 65 97 100 100 96 97 96
16 18 17 18 15 14 15 14 9 28 35 39 47 50 57 65 67 72 78 87 98 98 99 100 82 72 54 35 47 60 71 98 82 83 87 84 85 69 71 56 91 83 55 60 94 99 97 87 94
20 17 22 22 23 26 14 23 13 26 39 45 53 57 66 71 74 79 84 91 99 99 98 98 97 90 86 58 83 88 93 95 94 72 93 85 83 87 67 70 71 90 69 55 64 83 72 86 97
22 22 25 27 27 27 23 20 33 34 58 60 58 65 71 77 82 86 94 93 99 100 99 98 99 99 98 100 98 99 90 68 90 82 86 86 79 72 80 72 67 94 92 71 69 92 90 96 100
21 27 28 29 29 40 21 17 55 79 80 70 68 73 80 83 91 92 96 91 100 94 95 98 99 100 100 98 99 96 100 81 89 86 89 82 85 92 92 86 81 73 93 87 78 86 98 88 100
28 36 47 45 48 39 13 18 73 68 63 68 79 75 87 94 97 96 94 94 100 98 95 99 98 100 100 98 100 100 100 99 99 100 73 98 93 97 99 94 98 98 89 91 99 98 90 99 99
32 30 42 48 33 34 23 46 93 70 71 72 79 81 93 98 98 96 99 98 100 98 96 96 98 100 100 98 100 100 100 99 98 99 92 81 94 83 66 100 98 92 93 89 90 96 91 89 95
32 37 29 42 39 48 45 76 52 54 65 84 82 90 92 98 100 97 99 98 99 99 98 97 97 99 100 100 100 100 100 100 99 97 99 100 80 79 81 98 96 99 96 96 94 95 98 94 93
29 29 50 44 58 53 34 86 92 75 82 84 92 94 93 97 99 98 99 98 96 99 96 96 98 99 100 100 99 100 100 100 100 99 92 82 98 99 100 95 96 99 100 99 98 97 97 98 98
39 41 38 42 51 66 62 84 72 88 87 91 92 96 96 93 98 99 98 97 97 98 94 97 96 98 99 99 100 100 100 100 99 99 96 100 97 92 95 99 99 99 98 99 100 99 100 100 96
35 43 48 82 57 49 78 91 77 94 80 77 89 89 96 100 98 99 96 96 96 96 94 96 97 97 97 100 100 100 100 100 98 100 96 98 96 98 100 97 99 99 100 100 99 99 100 100 100

GFSSGP_850_rhum_135.txt.gz
RH
20 22 21 26 22 25 21 13 8 8 7 4 4 4 4 7 12 57 41 52 49 45 50 46 34 34 38 33 30 28 31 41 54 57 54 53 51 53 52 51 45 46 51 54 58 60 64 66 67
21 22 21 18 27 29 23 9 7 6 5 6 5 5 5 19 25 36 32 43 57 52 55 53 46 39 42 35 32 30 34 41 53 57 56 51 52 54 54 54 48 46 52 55 59 62 67 68 68
22 24 23 29 29 29 22 8 6 5 8 7 8 8 6 16 27 38 41 33 55 61 56 61 57 46 47 37 36 32 34 43 50 54 55 50 50 54 56 55 49 44 49 54 60 63 67 71 70
24 23 19 30 30 23 17 14 6 9 8 8 9 11 25 25 33 35 32 24 56 69 67 67 64 53 50 40 39 36 36 42 42 46 48 49 48 52 56 55 52 47 50 51 56 62 65 69 68
25 23 32 32 28 21 16 12 10 12 11 12 11 11 26 28 30 29 28 36 61 77 73 73 68 62 54 44 45 43 42 42 44 42 42 44 47 50 53 52 52 49 52 52 54 58 63 63 61
23 20 32 33 25 17 14 11 10 13 15 14 14 21 22 20 19 26 23 23 53 66 73 81 79 69 59 48 48 47 45 43 44 43 42 43 47 50 52 51 48 49 53 54 55 55 59 55 50
23 25 27 23 18 14 14 12 13 13 16 15 14 16 18 19 20 18 17 19 49 57 59 80 88 85 68 53 50 49 47 45 45 45 44 45 48 50 52 51 49 49 52 54 55 57 56 51 46
18 22 23 22 21 16 16 14 9 10 12 10 12 15 16 8 10 14 17 16 12 59 42 53 62 62 78 58 53 52 50 49 50 49 48 49 52 53 52 52 51 52 54 55 54 55 55 50 47
12 23 23 18 12 16 13 15 10 7 6 6 6 9 7 7 7 8 13 9 10 35 54 26 48 63 59 63 58 55 54 53 54 54 53 54 54 55 54 52 52 56 57 58 58 55 52 48 50
14 24 18 12 11 10 8 9 9 8 7 6 6 6 7 6 7 9 10 10 10 12 16 56 57 70 71 63 62 60 58 57 57 56 55 57 58 56 55 54 53 57 61 62 59 57 55 49 50
9 14 12 8 6 6 8 9 9 8 9 8 8 7 7 8 9 10 11 11 11 12 14 14 45 65 81 69 67 65 64 62 60 60 58 57 58 58 58 58 57 58 61 64 62 58 55 52 52
8 7 6 6 7 8 10 9 8 8 8 7 7 8 9 10 10 10 11 11 11 12 11 12 14 36 67 85 77 75 71 69 65 63 62 61 60 59 60 60 60 60 61 63 62 60 59 57 57
9 9 8 8 9 9 8 8 8 8 8 8 8 9 10 10 11 20 28 24 23 14 14 13 18 15 21 46 80 78 85 79 78 68 65 64 64 62 60 67 65 71 70 70 66 65 62 60 60
10 11 11 10 10 9 9 9 8 8 8 9 9 10 10 24 38 32 34 35 27 26 24 23 18 24 30 17 62 74 75 83 86 78 70 66 66 65 66 71 78 78 78 83 74 73 73 70 71
14 17 16 12 10 11 9 11 11 9 9 9 10 21 33 41 38 40 38 36 36 31 32 29 23 34 37 41 36 80 80 73 87 86 73 76 70 71 72 69 72 75 76 76 86 86 80 83 79
18 16 20 15 12 9 10 14 11 8 9 12 33 37 36 40 40 39 35 28 23 24 27 27 28 29 38 44 47 60 88 88 71 84 85 76 81 77 83 73 73 77 78 80 83 84 88 84 81
23 24 21 17 10 11 11 13 9 9 13 35 39 40 42 37 32 36 38 34 30 29 25 24 27 28 33 43 43 51 68 89 87 73 81 81 82 79 83 75 71 74 80 78 79 78 85 86 86
22 20 14 12 9 9 12 13 12 12 34 43 45 48 48 48 46 39 32 33 37 34 35 38 32 26 31 40 45 43 52 77 91 91 78 83 86 82 81 81 85 87 76 75 81 88 87 86 82
17 16 15 14 11 12 13 14 14 39 45 50 52 56 60 58 54 51 50 49 45 48 47 52 52 37 39 37 43 38 35 52 90 97 91 86 86 84 86 74 93 93 78 79 77 90 88 87 88
19 21 21 17 15 17 18 18 40 41 49 53 57 66 68 65 63 65 71 70 68 70 70 66 65 62 53 56 58 63 46 33 40 83 98 86 81 83 85 82 78 92 82 85 85 80 84 89 93
19 23 24 25 22 20 20 24 49 46 52 56 64 70 74 79 84 83 84 81 82 83 98 86 80 77 74 74 68 64 62 42 24 28 84 95 90 94 82 77 80 89 96 82 78 82 80 84 98
23 22 26 28 32 39 25 39 46 55 61 61 68 76 82 89 83 83 89 86 90 99 99 91 93 96 99 80 86 93 90 85 26 16 28 99 97 92 88 79 76 81 91 98 87 83 98 99 87
22 26 28 30 38 41 35 39 60 58 73 71 74 74 83 91 90 85 96 92 94 100 98 94 98 100 100 97 88 93 99 99 76 26 24 35 98 92 92 87 84 73 98 84 78 85 100 100 99
23 29 34 36 43 70 39 39 76 92 77 72 72 75 88 96 94 91 94 94 99 99 92 93 95 95 98 98 100 100 99 98 98 62 43 22 88 96 95 84 92 90 95 96 78 61 79 99 99
28 40 80 74 80 70 30 53 88 75 75 72 77 86 93 95 96 95 99 95 93 100 96 98 97 97 98 100 99 99 99 94 98 99 99 35 99 98 84 100 99 99 89 95 99 90 84 100 98
34 43 72 69 64 62 40 85 97 79 73 74 80 88 94 98 99 99 97 96 94 97 97 99 97 99 98 98 100 99 100 100 100 100 94 84 100 92 77 83 100 100 99 98 97 87 90 93 96
36 44 34 55 50 69 78 81 78 67 75 78 83 89 95 96 95 97 90 93 99 96 98 98 98 99 100 99 100 100 100 100 100 99 65 93 100 96 93 70 90 70 83 86 100 98 97 94 85
31 32 64 65 70 77 86 90 96 85 86 82 94 95 96 98 93 92 93 96 96 96 98 99 92 97 99 99 100 98 100 100 100 100 72 91 99 100 93 96 96 73 81 69 99 99 99 99 100
45 44 46 52 69 91 89 92 79 95 88 95 96 92 98 98 96 96 94 96 97 97 97 100 96 88 97 98 98 96 100 100 100 100 95 89 98 98 98 99 96 100 98 99 100 93 99 100 100
36 49 53 86 75 78 92 96 81 93 82 88 88 94 98 98 97 97 96 94 96 97 97 98 96 92 96 97 98 97 98 99 100 100 100 98 100 100 100 99 85 99 100 100 100 98 98 99 98

GFSSGP_850_rhum_138.txt.gz
RH
19 22 20 22 22 27 24 16 9 7 6 5 5 15 23 19 45 64 52 52 54 46 53 40 37 43 45 35 30 28 29 33 42 48 45 47 47 46 47 44 40 43 50 55 56 56 60 68 70
21 22 21 20 30 33 24 14 6 5 6 7 8 9 21 35 40 46 50 46 33 40 53 54 46 45 48 37 32 30 30 36 42 46 44 43 46 46 49 49 42 41 46 52 57 62 64 67 68
24 23 22 33 36 33 25 10 10 6 8 8 10 28 28 34 38 43 62 48 52 55 64 61 56 50 51 40 35 34 34 39 45 45 44 41 45 48 47 48 45 44 48 49 55 61 65 68 70
23 24 22 32 32 28 20 19 16 9 11 10 22 34 38 40 48 43 46 58 65 75 76 72 72 64 56 44 38 37 38 40 46 46 44 40 42 46 47 48 46 43 49 52 55 58 66 70 67
25 25 37 34 32 25 20 16 14 17 17 21 24 27 25 48 22 25 34 48 52 62 75 78 76 70 64 49 43 41 42 45 48 50 46 42 42 47 49 46 46 43 47 50 54 56 61 67 64
23 24 36 34 27 18 14 10 15 17 16 20 24 24 14 10 16 19 19 14 47 49 43 56 71 82 71 57 48 48 50 51 50 50 48 44 43 46 48 47 46 45 47 48 52 57 59 61 57
25 30 30 26 22 17 18 12 9 13 9 13 19 24 8 7 9 15 13 11 22 58 58 45 47 55 72 68 54 53 53 54 52 53 52 48 48 48 48 48 46 45 47 50 53 56 60 57 51
16 28 25 23 23 18 15 14 9 8 8 7 11 12 9 7 6 10 10 12 50 55 48 97 75 68 68 65 60 55 56 55 54 54 55 54 53 53 51 49 48 46 48 51 52 55 56 58 50
13 26 28 21 14 14 9 11 9 8 7 6 8 8 9 9 7 6 10 9 11 12 13 39 86 96 87 78 72 57 56 55 53 52 52 54 55 56 55 51 49 47 49 52 54 56 55 52 51
16 26 22 16 10 9 8 9 9 8 7 7 7 7 9 10 9 11 11 11 11 13 12 14 16 35 87 89 80 65 56 54 54 54 55 56 56 57 55 56 53 51 52 56 56 55 55 51 50
12 18 14 11 7 7 8 10 9 8 9 8 8 9 8 11 18 15 15 15 16 17 16 14 16 18 49 95 97 85 66 58 56 55 56 57 61 64 61 60 59 57 57 57 60 59 54 52 51
10 8 8 7 8 8 10 9 8 8 8 8 9 10 14 17 20 23 20 17 12 15 18 20 19 18 23 45 98 98 98 76 62 60 59 58 60 64 64 59 60 58 57 56 60 60 58 56 54
10 10 11 10 10 10 9 8 8 9 9 9 12 18 25 25 28 28 30 25 19 15 17 18 18 18 18 25 27 50 95 100 94 71 63 62 60 61 63 60 59 59 58 60 60 62 62 60 57
15 16 15 13 12 11 10 9 8 8 8 16 26 36 33 30 34 29 25 27 26 24 18 18 21 20 21 20 24 34 74 95 100 94 81 74 64 60 62 64 61 61 61 62 63 64 64 62 62
16 17 16 13 12 11 10 10 10 9 15 35 40 41 38 40 36 35 34 30 27 25 24 22 20 20 21 22 20 23 40 75 98 100 92 78 80 68 64 63 64 60 63 72 75 75 74 72 72
21 18 21 16 14 11 10 14 11 15 22 42 42 44 43 42 39 35 32 32 31 28 24 22 20 18 18 19 20 21 23 40 73 92 100 97 83 81 69 65 64 64 67 79 81 79 82 79 78
26 25 24 18 11 12 11 13 25 35 37 49 49 49 46 40 36 37 38 35 32 31 30 28 26 24 21 22 20 21 22 23 36 65 95 100 95 88 80 72 71 71 72 81 83 80 84 78 76
24 21 16 12 10 12 12 14 47 47 51 57 59 54 48 45 44 41 38 37 37 37 39 40 39 35 35 31 30 26 24 25 23 26 62 99 100 98 93 82 75 79 80 83 84 84 85 83 76
22 18 18 14 12 14 16 41 56 54 58 66 69 69 66 62 55 47 43 41 39 40 42 46 50 52 49 47 41 38 32 25 26 23 21 66 100 94 98 93 80 75 82 82 80 84 86 91 84
22 21 23 19 17 18 22 59 59 56 64 71 75 79 79 71 62 59 60 59 58 56 56 59 60 59 64 67 65 67 73 44 34 27 21 23 70 97 86 94 89 78 75 85 86 87 87 92 90
23 25 24 23 24 22 22 57 61 60 65 71 78 79 82 88 79 72 63 64 61 60 60 66 74 75 72 78 91 82 75 74 55 45 31 20 18 60 94 99 94 92 76 73 87 86 86 90 96
30 19 27 30 33 35 28 50 68 68 71 74 76 78 84 90 92 84 81 75 72 72 69 76 83 87 88 89 90 99 98 94 90 74 51 27 18 24 37 100 94 97 94 79 70 84 81 83 84
25 26 29 30 36 42 38 44 70 64 76 78 76 87 89 93 98 95 88 84 78 76 80 85 92 93 100 100 98 99 99 92 98 100 79 47 21 17 40 65 98 94 99 87 79 88 86 83 82
28 31 35 37 45 68 44 43 70 90 87 82 79 85 90 95 98 97 85 84 81 81 85 87 96 94 100 100 99 100 100 99 97 85 86 63 39 39 36 43 72 98 92 98 88 80 88 84 90
31 46 72 74 84 69 38 51 85 86 83 82 83 88 94 98 93 91 88 83 85 90 89 92 95 94 99 100 100 99 100 99 100 100 85 88 92 99 86 38 83 93 79 98 96 90 92 91 86
38 45 72 74 75 65 47 72 96 80 75 77 84 90 94 98 90 92 85 86 96 93 94 94 94 99 98 99 100 100 100 100 100 99 99 99 99 95 90 63 85 92 88 72 98 99 93 100 100
38 51 37 56 56 71 78 93 86 79 82 79 85 87 97 96 92 90 86 92 93 93 98 96 98 96 99 99 98 98 98 100 100 100 100 100 99 97 87 81 81 91 68 68 87 100 98 100 96
34 37 64 70 73 78 86 92 92 91 91 87 93 95 96 95 89 89 89 93 91 97 97 96 98 97 98 92 94 98 99 100 100 99 100 100 100 100 100 99 90 95 79 70 89 91 93 95 97
42 49 48 55 76 90 94 89 84 90 93 95 96 95 98 96 92 91 92 88 90 93 97 97 97 97 100 99 93 95 98 99 97 100 100 100 100 100 94 98 98 85 96 91 99 98 94 89 66
44 49 51 77 67 82 88 90 82 93 90 91 90 91 94 90 90 92 88 78 80 87 95 97 97 97 98 98 98 95 97 96 94 97 100 100 100 100 96 99 99 99 99 100 98 96 100 98 100

GFSSGP_850_rhum_141.txt.gz
RH
19 20 20 20 22 27 23 18 12 8 6 9 28 31 34 41 48 75 60 46 48 53 49 42 44 48 48 42 41 38 40 42 44 41 37 36 41 42 44 41 43 46 47 45 41 46 52 56 68
22 22 20 20 31 27 18 18 18 13 7 17 17 23 36 47 49 56 44 49 52 56 58 52 48 50 52 44 40 39 42 47 49 46 41 39 42 43 47 46 45 49 52 53 53 56 63 68 69
24 23 21 36 40 29 25 19 21 17 12 10 27 42 39 42 49 61 64 53 64 66 67 62 57 55 56 52 41 41 43 51 53 52 45 40 44 46 48 50 46 48 51 53 56 60 62 67 69
24 23 23 33 32 26 23 20 17 17 20 27 30 33 50 54 30 56 63 58 60 69 72 71 72 71 65 60 45 43 45 52 56 56 52 47 45 47 47 48 48 45 48 49 52 57 63 68 69
24 24 40 37 31 24 18 12 20 23 24 25 24 18 14 19 37 53 36 58 52 40 45 42 56 75 70 67 53 50 52 58 61 61 59 54 46 47 46 46 46 42 45 47 51 56 63 68 66
23 26 39 37 29 20 17 15 11 17 24 18 14 14 9 10 12 15 39 69 89 92 86 75 79 89 88 76 63 53 57 62 64 64 64 60 52 49 49 45 44 42 42 45 49 51 59 66 63
25 32 36 30 23 18 18 12 9 10 9 10 16 18 7 9 12 24 41 70 68 67 80 99 99 99 91 90 84 61 53 57 61 62 63 61 60 56 55 51 48 44 43 45 47 49 54 60 55
17 32 27 25 25 19 12 13 9 8 8 7 8 9 8 13 12 11 16 15 15 19 41 81 91 86 86 96 95 82 62 54 56 63 67 68 66 63 61 58 53 48 45 46 48 50 51 55 54
14 29 32 23 14 14 9 10 9 8 7 8 9 9 14 12 11 8 10 11 12 13 16 27 38 55 72 86 99 96 84 68 65 59 61 64 63 64 63 60 56 51 49 49 50 51 53 54 50
16 30 26 18 11 8 8 9 9 7 8 8 11 15 16 11 10 9 10 11 13 16 16 17 17 17 38 78 87 98 93 85 74 65 58 58 57 57 59 59 59 54 52 52 55 55 55 55 52
14 19 16 13 8 7 8 10 8 8 9 8 18 26 22 15 15 14 15 16 17 16 18 17 16 17 19 20 71 93 100 94 87 80 69 60 59 59 62 64 66 61 57 55 57 58 58 54 53
12 10 11 9 10 9 10 10 8 8 15 16 25 34 32 24 25 26 24 23 22 20 19 16 16 15 16 19 21 40 64 87 99 98 84 73 63 61 64 65 65 64 59 55 55 58 59 57 54
12 14 15 14 12 10 10 9 8 14 24 24 25 22 27 34 35 33 30 27 26 21 20 19 17 14 14 14 15 18 22 33 66 96 99 97 81 68 64 65 66 65 62 58 55 58 61 62 57
17 18 17 13 13 13 12 10 8 27 28 29 26 35 38 37 36 31 25 24 24 23 22 21 21 19 17 16 15 14 16 19 28 64 87 99 98 86 73 66 64 65 64 61 57 56 59 63 61
16 19 18 14 13 14 10 11 12 34 29 42 47 46 43 41 37 36 35 31 28 25 22 21 20 19 18 18 18 17 16 16 18 23 70 79 100 99 95 79 67 62 64 63 62 61 66 69 67
24 21 21 14 15 12 10 16 44 42 30 51 52 52 47 43 43 45 44 42 38 33 28 26 26 26 25 23 21 19 19 18 16 17 20 59 91 100 100 100 87 72 70 63 66 65 69 73 72
29 26 25 20 12 12 12 30 49 48 47 60 59 55 52 50 46 47 46 42 39 37 34 30 30 30 29 32 32 26 25 24 21 20 18 20 40 90 100 100 99 93 76 71 69 73 80 79 78
26 28 24 16 10 12 15 62 59 57 58 69 66 62 57 56 58 56 51 46 44 42 41 40 38 38 36 36 39 42 38 33 32 27 23 20 20 26 71 99 100 95 88 77 73 79 84 87 82
23 21 21 17 13 15 19 64 62 64 66 72 73 70 66 62 59 50 48 47 45 46 45 46 50 50 50 47 46 48 53 52 40 37 31 25 25 26 30 58 96 100 92 88 76 78 88 92 88
30 31 26 20 18 19 41 67 69 65 74 78 78 77 77 66 52 51 51 49 50 50 49 49 53 56 62 67 68 69 76 74 82 69 48 35 30 31 33 29 52 96 97 95 90 75 90 90 88
32 27 24 22 22 23 43 59 73 67 73 76 79 84 83 83 70 66 62 60 58 59 59 63 68 69 73 75 73 73 82 94 94 98 83 62 49 40 38 28 32 75 93 91 93 84 82 87 90
37 24 23 26 34 40 27 41 73 74 79 77 83 85 87 85 81 75 68 62 62 59 63 67 71 76 79 82 86 90 99 100 98 100 98 85 69 53 45 29 26 31 92 100 96 96 83 80 86
29 26 33 34 40 42 41 42 66 74 83 85 84 87 89 89 82 77 75 74 70 73 75 79 81 83 83 100 99 100 98 98 98 99 98 94 78 71 53 37 22 27 66 95 64 68 92 80 80
27 33 38 47 47 61 45 37 47 91 82 88 82 85 91 90 80 77 77 78 77 80 89 90 87 84 82 93 100 100 99 98 98 100 99 99 99 99 89 46 28 52 72 74 93 95 89 86 81
33 39 69 67 83 52 44 45 52 91 85 85 89 90 92 91 82 81 81 83 84 91 94 90 86 84 87 93 99 100 100 100 100 100 99 97 100 97 98 89 83 95 76 77 81 90 98 97 87
40 38 57 66 70 70 47 64 81 83 80 84 86 88 90 93 84 85 87 87 93 94 89 92 91 94 89 94 100 100 100 100 100 98 99 100 100 98 97 92 85 82 80 64 57 90 82 79 100
42 48 36 50 57 78 68 82 87 80 82 84 85 86 90 92 88 89 86 85 95 91 93 96 97 97 95 96 92 93 99 100 100 100 100 99 100 100 100 100 83 81 72 54 48 99 97 87 80
34 38 63 77 76 81 87 90 82 96 94 95 96 90 92 89 88 88 80 76 81 90 91 93 93 98 99 96 95 97 98 100 98 99 100 100 98 100 99 100 95 83 78 54 69 100 99 100 98
44 50 55 60 73 83 95 87 84 86 88 95 97 90 91 89 88 89 71 60 62 81 90 92 92 96 97 96 94 97 99 97 96 100 99 99 98 100 100 100 99 100 97 87 80 100 99 98 92
53 56 72 98 72 79 88 87 85 92 87 90 95 92 89 82 75 82 63 45 45 48 72 90 91 98 97 96 95 97 98 98 97 95 97 96 99 99 100 100 100 100 100 100 99 97 100 97 96

GFSSGP_850_rhum_144.txt.gz
RH
19 19 20 20 22 24 22 17 14 18 16 38 30 40 52 54 54 68 62 56 54 54 48 50 51 54 52 51 51 51 51 53 53 43 36 39 43 42 42 44 47 48 47 46 43 43 49 49 57
21 21 21 19 27 18 17 18 20 17 15 20 32 36 46 61 54 60 53 64 69 64 60 57 55 56 57 53 53 52 53 56 58 54 44 39 42 44 46 44 45 47 47 46 46 47 49 56 61
22 22 21 35 41 31 30 23 23 19 24 12 39 55 54 54 62 80 85 79 74 75 72 70 70 67 63 62 54 56 56 61 61 62 56 45 41 41 46 48 45 48 49 52 53 56 57 61 62
22 23 24 34 30 26 22 19 16 19 26 36 38 37 41 40 68 90 83 70 63 65 62 71 82 80 77 73 63 55 57 64 62 64 63 57 46 44 43 48 47 45 48 53 54 57 57 61 66
22 24 39 39 30 25 20 16 25 27 28 23 20 14 13 20 92 70 88 83 75 82 84 81 80 84 84 79 72 62 58 59 66 64 67 66 59 54 50 48 48 46 48 50 52 55 57 60 66
23 26 39 40 32 22 19 13 10 18 17 14 12 13 15 42 33 79 94 87 96 94 92 85 89 89 89 91 85 76 74 70 68 68 68 71 68 61 57 53 48 46 45 48 51 53 54 60 63
27 34 37 33 25 19 18 12 10 9 10 12 15 14 15 16 21 36 48 48 53 72 97 91 86 90 88 93 96 89 83 82 78 75 71 73 74 69 60 57 52 46 43 44 48 51 53 56 60
17 32 29 27 26 18 11 13 10 8 8 8 8 10 16 18 19 16 15 16 16 31 54 77 80 86 88 83 82 84 90 84 94 83 77 75 74 74 68 62 58 52 46 44 46 48 52 54 54
16 32 33 25 16 14 9 9 9 8 8 12 14 17 25 20 17 14 13 13 14 15 15 16 17 22 46 72 82 82 82 92 82 88 91 80 77 73 68 67 64 59 52 46 47 49 51 56 57
18 30 28 21 12 9 8 9 9 8 10 17 23 29 26 20 14 9 11 12 14 14 15 15 15 16 16 18 27 83 76 93 90 88 84 89 84 76 74 70 69 67 64 56 51 52 53 56 55
16 20 17 16 11 8 8 10 9 8 11 13 24 26 21 16 13 15 19 19 20 20 19 16 15 14 14 14 14 17 28 68 79 88 85 81 83 76 74 75 74 70 65 62 55 54 55 56 56
13 11 12 10 11 10 11 10 9 15 35 27 26 26 25 22 24 25 22 21 20 21 21 21 18 15 14 13 13 13 13 15 19 28 68 94 88 86 78 77 75 72 67 62 58 56 55 56 58
13 15 16 15 14 12 10 9 19 55 51 41 36 32 33 34 33 32 31 29 26 23 21 21 20 18 17 16 15 14 15 15 13 14 19 48 93 99 93 84 80 78 71 64 61 57 56 57 60
18 19 18 14 14 13 12 11 14 52 51 49 40 42 41 37 35 32 29 28 27 26 24 22 20 18 16 15 15 15 16 16 16 15 16 17 34 72 98 98 89 83 80 74 65 61 58 58 59
17 22 20 16 14 17 14 19 56 50 49 50 51 52 47 44 40 37 36 33 30 28 26 23 21 20 19 18 18 19 19 19 19 19 16 16 18 25 68 89 100 86 86 85 73 64 63 64 65
24 23 23 12 16 13 11 24 50 48 48 58 56 55 52 50 47 42 38 37 37 35 32 31 29 27 26 25 23 24 24 23 24 23 21 19 17 20 23 57 82 100 94 84 86 73 66 64 68
27 20 23 22 13 13 14 34 58 54 53 64 61 58 55 50 46 46 49 47 44 42 36 32 31 30 30 30 30 30 30 32 30 32 29 25 22 20 24 22 41 90 100 97 92 86 74 69 66
22 31 27 25 13 13 28 54 60 63 61 70 68 64 56 51 49 47 46 46 46 46 44 42 38 38 37 39 40 40 39 39 40 42 44 37 32 27 25 26 26 36 97 100 98 99 91 74 70
24 26 26 23 17 16 24 46 63 66 69 72 71 70 66 60 60 59 56 55 53 52 49 47 46 46 47 46 46 46 52 54 50 51 56 61 50 43 37 31 30 29 33 79 99 97 100 98 79
32 34 35 28 20 20 46 54 67 65 74 75 76 76 72 61 57 58 58 58 58 54 52 52 54 58 62 65 67 71 75 80 80 70 71 88 73 64 62 50 36 38 36 33 76 83 100 100 99
36 36 31 26 22 27 40 47 77 70 76 78 80 80 77 74 68 64 61 63 61 58 58 60 63 64 63 68 75 77 78 85 99 100 99 98 81 63 67 61 52 42 36 39 32 52 100 100 100
42 32 30 26 31 38 26 45 60 80 83 78 84 81 80 74 71 72 72 69 67 65 65 65 65 66 69 75 79 90 97 100 99 99 97 97 99 89 87 77 62 46 33 33 70 63 60 79 98
35 28 32 30 38 40 42 42 50 80 88 86 87 85 84 81 78 78 76 71 69 67 66 64 66 71 74 79 83 96 100 100 99 99 99 97 97 100 100 99 96 58 38 28 68 93 79 76 53
27 33 47 53 50 65 44 41 29 91 82 92 85 87 88 82 76 77 76 71 71 70 69 71 71 77 80 81 96 100 100 99 99 99 100 98 98 98 99 99 100 84 53 34 28 90 81 65 80
34 42 66 67 81 57 40 46 38 83 82 82 89 89 89 85 79 82 76 70 76 79 79 79 80 83 83 89 100 100 100 98 99 99 100 98 98 98 96 93 99 99 80 60 43 39 73 81 87
39 37 59 58 62 57 49 62 66 84 83 84 85 88 88 87 85 84 76 68 80 84 81 80 83 84 89 87 98 100 100 100 100 100 100 100 100 98 99 100 100 88 100 97 86 80 82 81 83
40 50 32 49 61 80 65 69 84 86 92 91 89 89 88 89 87 82 67 62 68 82 85 84 86 87 89 86 89 97 100 100 100 100 100 100 100 99 100 100 100 98 100 96 100 99 85 72 69
36 38 65 88 93 88 81 85 74 95 94 95 100 90 90 88 86 82 54 51 51 70 86 86 83 87 91 88 88 98 98 94 95 98 99 100 100 100 100 100 100 100 100 100 100 100 91 94 86
62 61 64 65 76 84 91 84 79 86 85 95 92 88 88 89 81 74 47 40 33 37 44 64 60 86 88 91 95 92 93 93 95 98 98 99 100 100 98 99 100 100 100 100 99 100 100 100 100
56 70 69 96 90 87 88 75 88 94 90 86 93 93 91 81 76 64 44 32 26 21 24 27 35 51 62 52 60 94 96 96 97 98 98 98 97 98 98 99 98 100 100 100 100 100 100 100 100

GFSSGP_850_rhum_147.txt.gz
RH
17 19 20 20 16 14 18 15 13 17 36 41 48 44 52 55 57 73 88 82 77 65 63 63 63 63 61 60 60 62 58 58 54 45 35 32 34 36 37 40 44 46 47 48 48 46 47 56 51
19 20 20 19 17 11 14 15 19 17 24 34 45 43 45 56 78 94 86 94 83 75 70 67 66 67 68 65 63 62 61 59 59 54 47 40 37 38 40 40 42 46 47 45 43 43 48 50 58
20 21 20 22 24 16 17 19 15 22 25 18 49 58 55 38 83 100 100 98 87 80 78 73 73 73 74 74 71 70 63 62 61 61 56 52 47 44 43 44 43 45 46 47 48 50 53 57 60
21 21 23 22 23 20 17 16 16 20 35 41 44 35 25 95 92 100 100 88 73 72 76 82 85 84 81 79 75 73 74 72 65 65 64 59 55 52 48 49 47 45 46 47 50 53 55 57 60
21 22 25 27 25 20 17 14 22 24 22 27 18 17 28 73 90 100 97 94 73 78 80 80 86 90 86 81 79 85 79 77 77 67 68 67 63 59 56 52 51 48 47 47 48 51 54 54 59
22 25 24 23 24 20 17 14 11 14 14 12 13 18 25 40 53 80 88 82 85 80 81 84 90 92 93 95 91 86 86 86 87 81 71 72 71 66 62 60 58 54 49 48 47 48 51 53 58
22 24 28 27 23 18 14 12 9 10 12 11 14 15 21 28 30 36 45 52 60 78 90 82 74 70 82 88 92 92 83 80 86 92 86 76 76 74 68 64 63 60 55 49 47 47 49 51 58
21 22 26 24 21 16 10 12 10 8 10 10 10 12 18 26 23 20 19 18 19 26 35 39 48 61 79 83 80 85 89 88 86 87 91 88 89 79 77 73 68 64 59 53 50 50 50 52 58
17 22 24 23 21 12 9 8 9 9 12 17 18 18 23 25 23 21 18 16 14 14 14 14 14 15 16 22 49 70 80 85 90 87 92 94 91 92 86 81 75 72 67 60 52 51 53 56 59
16 21 21 19 12 9 8 9 9 9 15 31 39 28 25 24 22 16 12 11 12 12 13 12 13 14 14 13 13 14 18 39 59 79 87 84 88 90 96 93 86 79 72 69 60 54 55 59 58
17 16 16 16 13 9 8 10 10 9 11 23 34 36 31 26 21 19 16 17 16 17 18 16 14 14 13 13 14 14 13 12 12 18 45 64 84 82 81 85 90 87 80 78 71 60 56 56 56
12 12 13 11 12 11 10 11 24 41 52 41 33 34 33 28 26 22 22 23 22 21 20 19 18 17 16 15 14 14 13 14 14 13 13 14 21 68 81 80 81 87 90 84 79 71 58 53 57
14 15 17 15 15 14 12 12 31 58 57 45 40 36 32 30 28 30 29 28 26 23 21 20 19 18 17 16 15 14 14 14 15 16 15 15 14 15 40 83 94 91 96 91 86 78 68 57 55
19 19 18 14 14 14 12 24 28 55 53 44 40 39 38 36 35 34 31 28 26 24 22 22 21 20 19 18 17 16 16 16 17 18 18 18 18 16 16 30 76 95 95 96 95 85 75 66 60
20 18 17 15 16 15 14 22 46 54 55 55 49 47 45 43 41 37 36 33 30 28 25 24 22 22 22 22 22 21 21 20 20 20 20 21 20 20 18 19 25 52 79 99 89 94 89 76 70
20 21 17 13 16 14 14 16 49 55 54 60 63 58 50 47 45 43 41 39 34 31 29 28 27 26 26 26 26 25 26 27 28 28 26 25 25 24 23 20 21 28 68 72 98 89 96 87 75
20 14 21 17 13 13 14 23 52 58 54 60 66 64 60 54 50 46 44 40 39 39 35 34 34 34 33 32 31 31 30 31 32 34 36 34 32 32 32 28 20 18 30 73 69 100 86 93 78
19 21 24 23 13 13 18 30 52 60 56 60 65 67 64 59 55 53 50 48 48 45 42 41 41 41 40 39 39 39 39 40 39 39 42 44 45 43 44 39 31 24 23 34 82 83 100 93 98
21 24 24 21 18 20 20 18 45 59 61 63 67 69 67 60 57 57 55 53 50 47 46 46 45 48 50 49 47 47 49 50 48 46 48 52 62 76 63 62 48 36 31 27 32 82 98 99 100
27 27 28 25 22 21 20 22 46 57 56 62 66 74 74 66 58 56 57 56 53 52 52 54 57 59 62 65 65 66 64 62 62 60 61 64 75 88 91 86 67 53 46 38 42 35 80 100 97
30 32 32 27 22 25 28 24 46 56 66 74 81 81 75 69 63 61 61 60 61 60 61 63 65 64 64 66 68 69 74 86 86 84 94 93 97 99 100 99 96 80 75 60 50 68 74 83 78
36 29 28 29 28 32 24 30 35 50 61 68 76 82 80 70 68 68 65 65 65 68 69 68 67 68 70 73 79 85 100 100 100 100 99 98 100 99 98 99 99 99 94 80 56 50 59 76 80
30 28 30 31 31 32 31 30 26 62 60 60 74 81 84 75 72 70 64 69 73 73 72 69 68 69 72 75 80 98 100 100 98 100 98 94 97 99 100 100 100 100 100 100 90 48 39 68 82
27 25 39 46 39 44 31 31 28 49 59 73 76 84 87 76 74 73 65 73 77 76 70 67 69 71 71 73 76 98 100 100 94 97 100 99 99 98 100 100 98 98 99 99 98 73 44 56 98
25 33 50 54 59 48 32 36 31 55 68 68 76 85 90 80 78 74 61 62 74 75 72 67 71 72 73 75 79 98 93 100 100 98 99 99 98 98 98 98 94 90 87 99 99 91 57 51 99
34 34 49 64 53 49 44 44 46 74 78 81 87 92 92 84 82 74 55 54 59 74 76 66 74 77 79 81 82 96 100 100 100 99 99 100 100 99 99 100 99 96 93 98 99 99 84 63 96
39 41 29 46 47 88 52 67 80 78 84 88 90 92 87 85 85 72 48 42 43 57 64 57 77 81 64 81 86 93 99 100 98 97 97 100 100 100 98 99 100 100 99 96 100 100 98 100 100
36 33 56 74 89 86 56 63 59 80 90 92 98 96 96 88 86 66 39 32 27 26 36 41 58 50 26 65 87 93 94 96 98 96 96 100 100 97 98 99 100 100 100 99 98 100 99 99 98
48 53 59 58 76 86 81 60 73 87 84 95 94 88 94 86 81 60 34 30 24 20 22 24 22 16 15 14 42 86 88 92 91 94 98 99 97 97 100 100 100 98 99 99 99 100 100 100 100
41 43 49 85 75 86 84 81 82 94 85 85 90 93 92 80 73 55 34 29 18 16 19 17 14 13 11 11 10 18 52 88 91 95 96 96 98 98 99 100 98 99 100 96 99 100 100 100 100

GFSSGP_850_rhum_150.txt.gz
RH
14 19 19 20 13 8 10 12 10 14 22 29 28 28 43 49 52 65 99 99 100 100 99 80 75 72 67 66 68 65 58 57 50 43 39 38 41 45 47 45 43 42 46 48 51 52 50 59 53
14 21 21 15 12 8 10 12 12 19 28 32 34 36 38 55 82 97 95 99 99 96 81 74 73 70 69 68 69 70 66 61 58 52 47 45 46 46 44 41 40 40 43 45 47 49 46 54 51
16 21 16 13 11 7 10 13 12 17 21 23 34 35 36 54 74 100 99 100 95 81 77 72 74 74 72 72 70 71 70 67 64 60 56 52 48 46 46 44 43 41 42 42 44 44 47 51 59
25 20 17 14 12 14 13 14 15 21 19 26 25 28 53 73 93 100 100 100 94 90 88 87 85 83 81 79 74 69 72 74 69 67 64 59 55 51 50 49 48 46 44 44 48 49 51 55 60
21 16 14 14 14 14 12 13 18 17 21 26 18 29 48 67 90 97 98 99 89 87 86 87 91 89 87 84 81 80 76 77 81 72 73 72 66 61 57 54 54 51 47 48 52 53 52 54 57
14 15 14 14 14 14 11 13 17 18 19 16 19 31 41 53 59 74 85 87 88 83 81 82 84 84 84 89 92 88 79 80 80 83 74 75 79 74 66 62 60 57 52 49 50 53 56 57 57
13 11 12 13 15 15 12 12 14 14 14 13 17 20 36 44 48 40 46 53 62 71 74 72 68 68 70 73 81 83 85 81 81 73 82 78 78 82 81 73 66 63 59 54 52 52 55 55 54
16 11 13 13 15 15 10 9 10 12 11 14 18 16 28 43 32 31 21 21 24 30 35 35 32 32 37 54 64 70 77 82 88 81 76 76 82 82 83 86 82 71 67 61 56 55 57 57 53
16 11 10 13 14 12 8 8 8 9 12 26 33 32 41 38 34 35 27 18 15 14 13 13 12 13 13 13 14 16 20 27 47 68 82 81 86 86 85 92 88 85 76 68 63 59 58 58 56
10 10 11 12 11 9 7 8 7 8 13 23 33 40 39 37 35 31 21 16 14 14 13 13 13 13 13 13 12 12 11 11 11 12 21 59 77 82 82 87 88 86 86 84 76 70 64 65 78
10 10 13 11 10 8 7 7 8 7 8 21 22 35 37 37 34 30 26 19 18 17 18 16 15 14 14 14 14 14 13 12 12 12 12 12 16 36 75 90 93 85 82 83 82 78 73 93 92
10 9 10 9 10 9 8 8 17 20 33 37 37 38 37 38 39 33 36 28 20 19 18 18 17 17 16 16 15 14 14 14 14 14 14 13 13 13 16 32 82 89 82 82 86 86 95 98 93
9 10 11 11 11 11 10 9 17 35 41 40 41 40 40 41 43 40 36 30 24 22 21 20 19 19 18 17 16 16 16 15 16 16 16 16 15 14 15 14 26 51 94 83 77 94 88 94 97
14 12 10 10 10 11 10 14 19 36 40 41 40 40 43 46 47 48 40 33 26 24 23 22 22 21 20 19 19 19 18 18 18 18 19 19 19 18 17 18 17 26 56 88 93 80 94 88 90
12 10 7 8 9 9 10 14 14 37 39 38 41 44 47 50 50 48 37 38 31 30 26 25 24 24 23 22 22 22 22 21 22 22 23 24 24 24 23 21 22 21 28 80 97 99 87 97 96
10 13 13 12 12 12 11 10 27 36 37 35 38 44 48 51 53 52 40 40 36 33 33 30 28 28 28 27 27 30 34 32 37 40 37 33 33 32 31 35 31 34 35 57 90 100 96 92 91
11 12 13 12 10 10 12 12 29 36 36 37 38 41 44 50 52 58 52 47 43 41 36 34 34 34 32 32 33 35 40 48 50 50 58 64 47 44 53 40 33 34 35 48 82 84 100 100 97
14 14 13 14 11 10 11 12 26 36 35 34 36 40 44 48 53 63 63 52 46 47 43 44 45 43 40 42 46 57 59 64 66 76 70 69 63 56 59 72 65 47 82 81 78 76 89 98 100
15 17 17 14 13 17 16 14 12 29 34 33 36 39 43 51 60 64 68 64 56 62 60 61 63 59 51 54 57 64 65 60 65 83 78 73 92 75 95 95 82 79 96 96 93 87 87 93 97
19 22 22 19 18 18 18 16 12 22 31 31 33 38 46 55 56 65 70 72 64 69 66 69 65 58 63 65 78 92 94 94 94 96 98 98 90 93 98 99 100 99 100 99 98 100 90 82 87
26 29 28 27 22 19 20 22 18 22 31 35 40 43 55 56 58 64 71 78 77 71 61 60 60 69 77 73 88 95 97 96 95 98 97 78 86 98 99 98 98 98 98 99 99 100 100 98 81
28 20 26 26 28 28 19 27 16 20 32 39 44 54 55 59 63 67 70 79 81 79 68 70 75 88 85 76 83 96 100 100 100 100 99 98 96 95 99 98 99 99 99 98 99 98 98 99 97
25 22 24 26 28 28 24 28 18 25 30 32 40 52 60 62 66 69 73 82 83 82 75 87 93 90 75 80 95 98 99 100 100 100 100 99 90 96 100 100 99 99 98 98 99 99 98 100 91
22 25 26 27 30 39 25 24 21 26 31 32 38 56 64 63 69 72 72 79 84 86 75 89 81 89 81 95 96 92 96 99 100 100 100 99 100 99 98 98 98 98 96 96 93 91 97 98 98
26 32 47 43 44 40 21 29 24 31 40 44 48 57 67 69 72 71 68 69 74 80 71 56 74 77 68 78 77 81 92 97 100 100 100 100 100 98 98 98 98 98 99 98 100 96 97 97 98
26 28 42 53 35 39 34 37 33 51 57 57 60 67 74 74 80 76 71 64 50 54 59 45 59 33 41 62 70 79 81 87 98 97 97 100 100 100 99 98 100 100 100 99 99 100 99 99 94
31 37 26 41 41 52 36 42 37 54 64 73 73 74 98 95 89 82 66 33 25 28 35 31 28 12 25 42 62 80 83 87 97 99 98 100 100 99 99 100 100 100 100 100 100 100 99 98 100
26 24 46 50 65 52 38 35 42 49 66 85 98 89 90 91 93 82 51 29 22 19 23 21 14 9 10 20 44 80 91 93 94 91 95 100 100 100 100 100 100 100 100 100 100 100 98 100 100
36 39 38 48 60 62 57 42 54 83 74 100 98 97 100 99 82 58 35 24 16 18 18 14 11 10 9 10 13 35 53 80 93 94 91 96 93 98 99 100 100 100 99 100 100 98 94 97 100
26 31 32 60 53 59 72 72 61 93 69 82 90 96 97 88 79 55 32 21 14 16 14 11 9 9 8 8 10 14 18 16 16 26 30 50 76 92 97 100 98 98 99 100 100 100 95 99 100

GFSSGP_850_rhum_153.txt.gz
RH
11 23 21 18 13 8 6 7 6 8 17 19 17 22 43 59 54 72 100 97 100 99 96 78 74 70 69 67 66 63 59 56 52 48 45 50 58 62 64 60 56 54 52 56 55 55 53 53 61
9 22 19 14 11 9 6 8 7 10 20 26 32 32 34 54 81 98 100 94 98 98 94 81 75 71 66 64 64 65 64 60 58 53 50 50 54 62 66 61 54 50 50 54 57 55 51 47 55
11 21 15 11 10 8 9 8 8 17 20 20 24 27 38 51 82 99 100 99 96 90 83 75 75 73 72 69 66 63 64 64 62 60 57 58 56 62 64 58 52 47 49 53 54 55 48 50 50
16 16 13 13 10 8 9 10 9 13 14 18 21 39 56 69 80 99 93 83 84 88 93 88 83 81 80 79 76 72 67 67 66 65 63 64 70 68 61 54 52 48 46 48 48 47 48 52 59
14 14 14 12 10 9 9 10 11 13 12 16 15 33 55 68 93 76 88 89 89 90 88 92 90 88 87 87 84 80 76 69 68 70 68 68 67 67 66 61 54 53 51 49 50 51 53 54 58
11 10 14 12 10 10 9 11 12 12 16 17 15 34 49 58 62 67 78 87 82 79 78 78 79 77 74 73 78 84 86 83 72 72 72 70 72 72 71 71 68 61 58 54 53 54 56 56 58
9 10 11 10 10 12 10 11 12 13 13 13 20 23 44 48 51 53 56 61 66 66 66 63 60 60 65 69 70 71 75 78 85 78 76 76 75 73 75 75 73 72 69 61 55 54 56 57 57
10 9 10 10 11 13 10 10 12 12 12 14 16 21 37 42 43 38 40 36 22 24 27 26 20 15 15 18 22 32 44 51 67 75 81 79 79 83 81 79 78 78 74 71 65 59 56 55 60
9 10 10 9 10 11 9 9 10 9 14 21 25 26 35 36 34 33 34 35 33 15 13 12 11 11 11 11 12 12 12 12 12 13 15 42 74 79 86 87 90 78 77 74 74 75 66 61 59
7 10 10 9 9 10 8 8 8 12 16 20 27 33 32 30 29 27 28 34 33 18 14 12 12 12 12 12 12 12 12 12 11 11 12 12 12 17 50 74 85 83 81 78 76 72 73 73 66
8 9 9 9 8 8 7 8 8 8 10 14 18 24 27 27 28 27 30 36 40 41 23 15 14 13 13 13 13 13 13 13 13 13 13 13 13 13 12 16 74 91 90 82 87 78 71 72 78
8 7 7 8 8 8 7 7 8 12 22 21 22 24 26 26 29 30 33 35 40 45 34 19 17 16 16 16 15 15 14 14 14 14 14 14 14 13 13 16 42 23 78 90 90 87 86 88 80
8 6 7 7 8 8 8 8 8 21 25 26 27 26 26 27 30 34 35 39 43 45 40 21 20 18 17 18 18 17 18 18 17 18 18 17 16 16 15 14 17 24 36 44 86 92 89 89 79
10 9 8 7 7 7 8 7 13 20 26 27 28 26 28 30 32 35 38 43 46 47 47 25 22 20 20 21 21 21 22 22 22 25 32 24 24 23 22 24 28 40 60 65 58 88 98 97 94
9 9 7 6 6 7 8 8 12 17 25 26 26 28 31 33 34 40 46 44 46 45 53 35 26 25 24 24 24 26 35 29 30 41 42 42 47 47 51 57 46 64 71 64 60 41 75 100 100
10 9 10 7 8 8 9 10 8 24 23 22 25 28 32 34 37 43 47 45 47 50 49 33 29 30 26 27 30 42 47 42 62 70 74 78 88 92 71 80 90 87 73 79 82 74 77 79 98
9 10 9 9 8 8 10 10 18 23 23 22 23 26 30 32 37 45 47 49 52 54 41 46 42 36 31 33 44 62 71 73 74 76 82 86 95 97 98 94 73 71 80 94 89 79 79 84 91
10 11 10 10 8 9 10 9 12 22 22 21 23 24 27 30 34 47 52 58 58 63 64 69 73 61 44 57 64 70 76 79 79 82 84 89 95 99 99 98 98 97 81 94 95 87 80 75 82
14 13 12 9 8 11 14 12 10 15 21 21 22 23 27 30 40 49 58 61 65 71 74 75 78 78 74 74 73 76 78 81 83 84 86 93 98 98 91 99 98 98 99 99 99 99 99 84 77
14 14 13 11 10 13 15 14 11 10 18 20 20 22 26 34 43 50 56 63 71 73 78 77 79 83 83 83 83 87 87 86 85 84 91 95 100 100 100 98 99 98 99 97 97 98 96 99 85
17 18 18 18 16 15 17 17 13 10 11 20 21 23 27 37 41 49 56 64 68 74 80 79 83 84 87 77 87 90 87 84 85 91 93 98 100 99 100 100 100 100 98 98 98 97 98 98 97
21 14 16 20 22 22 13 21 14 13 16 21 24 30 36 43 50 51 55 63 67 76 84 84 86 84 87 92 96 98 95 95 99 99 100 100 100 100 99 100 99 100 100 98 96 99 99 99 96
21 19 21 20 23 23 20 21 15 11 14 23 25 32 40 46 48 52 58 65 69 76 78 86 82 79 89 90 96 96 99 100 100 100 99 100 100 100 100 100 99 100 100 100 100 100 93 97 98
19 23 24 23 24 33 21 20 17 21 27 21 23 33 44 49 54 56 61 65 70 77 80 82 83 72 75 63 97 96 96 98 99 100 100 100 100 100 100 100 100 100 100 100 98 98 99 99 96
23 28 38 34 31 30 16 20 18 27 29 28 28 38 47 51 53 54 53 54 67 78 80 78 82 66 68 63 93 97 97 97 98 99 100 100 100 100 100 99 99 99 99 100 99 98 99 100 100
16 21 30 34 28 22 15 28 29 38 38 40 41 44 53 54 61 60 60 61 68 76 81 85 72 63 72 46 69 89 97 97 96 98 100 100 100 100 98 95 100 100 100 100 100 100 99 99 100
20 24 19 27 26 34 24 25 25 38 56 62 53 54 70 66 67 66 65 70 71 76 80 52 25 11 71 56 38 48 74 94 91 90 96 100 100 100 98 96 98 100 99 99 99 100 100 100 100
21 17 32 32 57 48 31 26 44 59 53 69 98 80 74 94 82 74 73 78 48 22 84 22 9 8 18 42 24 16 27 69 69 60 70 85 93 93 93 98 98 100 100 100 100 100 100 100 100
20 28 26 26 34 58 56 42 41 53 55 97 100 97 82 91 82 88 82 31 15 19 76 25 17 8 8 9 12 12 10 11 23 23 22 18 36 90 91 95 97 96 98 99 100 100 99 100 100
18 22 30 58 44 40 61 76 50 76 54 66 88 92 99 99 77 70 42 24 14 17 13 10 9 11 8 9 10 13 12 11 9 8 15 11 12 15 31 78 99 99 97 98 98 98 97 100 100

GFSSGP_850_rhum_156.txt.gz
RH
9 13 20 19 18 14 10 7 5 7 12 15 19 44 63 74 77 89 100 100 100 94 82 73 70 68 65 63 62 61 58 57 54 49 46 46 50 63 62 65 65 65 63 62 60 59 63 58 56
7 10 19 16 19 17 10 6 7 14 19 25 27 32 41 68 91 99 100 100 95 90 93 75 68 67 65 64 63 63 62 60 58 55 51 51 53 59 66 67 64 63 62 60 56 57 60 58 56
13 15 16 15 14 13 10 7 10 16 20 21 23 37 43 66 90 98 96 90 89 88 84 77 74 71 70 70 68 65 63 62 60 60 58 55 62 65 70 70 64 60 59 58 58 56 56 54 54
12 14 15 15 16 11 9 9 9 16 14 16 26 46 60 72 86 92 81 82 83 87 91 85 85 81 80 78 76 76 74 68 64 63 62 61 61 62 59 62 61 58 56 59 62 61 54 50 54
10 12 16 17 14 9 8 9 9 12 11 14 22 46 62 75 86 82 79 82 89 89 89 91 87 85 85 79 74 76 79 76 72 68 67 65 65 65 64 57 55 57 58 56 55 54 54 54 56
9 11 14 15 12 9 8 9 10 10 11 14 34 42 56 68 66 76 84 85 82 79 77 75 73 70 65 59 58 67 74 75 77 76 75 73 72 70 69 67 62 58 57 61 59 56 58 57 58
8 10 13 12 10 11 10 10 11 10 14 16 24 33 52 51 59 74 77 71 68 64 62 56 50 44 41 40 41 47 54 60 67 73 79 77 78 82 78 74 73 70 63 59 61 62 60 59 58
9 8 11 11 10 12 10 10 11 11 14 15 20 30 44 48 47 47 43 29 23 21 18 15 13 12 12 12 13 13 12 13 14 21 34 42 77 78 76 80 81 76 74 70 64 60 63 61 57
8 10 12 10 10 11 10 10 10 11 16 21 28 33 39 43 38 36 36 40 39 23 15 12 10 10 10 10 11 12 12 12 12 12 11 11 11 15 31 65 79 80 85 84 80 73 67 61 58
8 10 10 9 8 9 8 8 8 10 17 22 31 34 34 34 32 30 30 37 37 23 14 11 11 11 12 12 13 12 12 12 13 12 12 12 12 13 13 12 11 35 78 80 79 79 79 75 64
8 10 8 8 9 8 7 7 8 10 14 19 22 27 28 28 27 26 30 36 41 36 20 16 13 13 14 14 14 13 13 13 14 13 14 13 13 13 14 13 13 13 19 53 84 83 82 88 78
9 6 7 7 8 8 7 7 7 16 20 16 21 24 25 25 26 28 30 35 41 44 32 20 16 16 15 16 15 15 16 16 16 17 16 16 15 15 15 14 14 16 17 21 49 86 95 97 97
10 8 7 7 7 7 8 7 8 20 21 21 21 22 22 24 29 30 34 38 42 45 38 23 19 18 18 18 18 18 19 20 20 20 22 20 19 18 18 17 17 17 19 28 40 57 70 95 94
10 9 9 8 7 7 7 7 7 18 22 22 23 22 23 25 27 34 36 42 44 46 46 32 24 22 20 20 20 22 23 24 26 27 33 34 35 31 29 26 25 25 32 38 49 58 62 54 98
10 10 7 6 7 7 7 8 9 14 21 21 22 23 25 28 31 36 43 42 45 46 52 41 34 26 25 25 26 30 34 34 34 46 52 52 55 56 50 48 40 42 53 45 40 40 55 66 42
11 10 11 7 6 6 7 11 12 16 20 21 21 24 27 30 31 40 45 44 46 51 51 47 36 32 28 28 30 33 41 40 51 56 59 78 78 70 64 57 49 45 49 50 47 54 68 72 78
10 13 10 8 6 8 9 11 17 19 19 19 20 23 27 30 35 43 44 49 51 56 54 48 39 29 28 30 33 42 51 57 62 64 76 80 78 95 98 100 93 64 52 53 55 58 81 88 74
10 10 10 10 8 9 9 10 8 19 18 18 19 21 25 27 32 44 49 57 60 63 55 50 40 34 34 35 37 40 44 51 62 76 82 86 86 95 99 93 99 99 99 99 93 88 87 98 95
15 15 15 10 7 9 10 10 10 11 19 19 18 20 23 26 39 48 53 61 65 69 66 65 57 49 44 42 45 50 56 67 75 82 82 82 93 98 99 100 98 98 99 98 98 99 100 85 99
16 16 15 11 9 10 12 13 12 11 12 18 19 20 22 32 42 49 54 62 70 73 70 73 72 63 50 51 65 61 66 73 80 78 80 90 89 99 99 99 98 99 98 98 98 98 96 99 91
16 16 15 16 13 13 15 18 16 12 11 12 18 18 21 30 39 47 53 63 67 75 78 79 79 65 50 47 61 60 67 69 72 76 81 87 100 100 100 100 100 99 99 99 99 98 98 98 97
20 14 18 20 22 27 16 26 17 13 12 16 18 20 28 38 42 46 52 60 67 78 84 78 78 65 46 44 62 71 78 85 90 85 86 95 99 100 100 100 99 100 100 99 99 99 100 100 98
20 17 19 21 22 23 20 21 16 13 13 17 22 27 37 40 44 48 54 61 68 75 80 81 75 68 41 53 66 73 81 90 88 80 87 94 100 100 100 100 97 99 100 99 99 98 98 98 99
16 20 21 23 26 38 24 23 21 28 28 23 24 31 37 44 48 51 58 62 69 78 80 80 74 66 46 51 50 53 59 83 93 89 90 96 99 99 100 100 96 100 100 99 99 100 100 100 98
18 27 46 44 41 39 18 17 30 30 30 25 29 34 42 46 50 52 54 54 66 77 80 74 62 70 57 42 34 38 42 64 85 94 99 100 100 98 93 98 95 98 100 100 100 100 100 100 100
17 22 40 41 37 27 15 20 39 36 35 34 35 40 46 49 52 51 54 58 66 75 82 77 40 60 72 30 25 20 37 51 47 65 76 97 100 100 92 91 95 98 100 100 99 100 100 100 100
17 22 15 24 26 36 26 27 34 48 52 77 44 48 52 54 59 58 62 70 74 78 80 42 16 20 52 48 33 17 20 17 17 17 17 35 98 100 96 89 90 94 98 100 100 100 99 99 100
17 15 30 33 45 48 35 31 69 65 67 68 78 60 69 65 66 67 70 74 56 48 79 20 8 8 23 28 17 10 10 10 10 7 6 11 22 53 88 93 92 95 95 95 98 99 100 100 100
19 23 24 26 38 56 58 52 42 60 55 97 94 74 71 80 76 76 80 63 19 33 69 42 15 8 9 11 13 10 8 8 7 7 10 8 7 11 20 49 79 91 96 93 94 95 97 100 100
18 20 20 44 42 46 71 90 57 74 54 69 86 87 83 86 81 85 84 54 17 13 16 11 14 9 9 9 10 15 17 17 18 18 29 22 9 8 15 16 20 26 39 77 90 95 96 94 94

GFSSGP_850_rhum_159.txt.gz
RH
3 9 19 21 29 31 28 18 8 12 20 48 46 60 87 90 86 95 100 100 99 95 85 74 63 61 61 61 60 59 58 56 54 50 42 39 46 55 63 64 66 67 63 62 61 58 57 54 51
4 12 19 19 31 34 28 18 30 31 29 40 55 53 68 85 98 100 100 98 99 94 88 68 64 62 63 63 62 62 62 61 58 56 53 47 45 49 60 70 68 65 63 62 62 62 60 58 52
12 12 18 29 32 31 21 17 26 22 23 24 41 50 60 82 95 95 97 98 88 93 87 73 69 68 69 69 70 70 69 66 64 62 60 58 54 50 48 53 68 70 64 62 60 65 60 58 54
11 14 16 25 25 19 13 14 19 14 17 23 44 65 71 74 92 86 84 86 83 90 90 82 80 79 76 73 74 73 74 74 72 68 65 63 62 62 60 54 49 54 60 61 60 59 58 52 52
8 12 24 27 25 18 11 11 13 15 21 39 36 61 73 89 81 79 81 83 82 92 93 87 81 76 69 61 54 54 68 74 77 77 73 71 69 68 68 65 61 56 54 54 54 53 51 50 50
8 13 24 27 20 13 12 10 10 13 30 40 52 55 67 74 80 78 83 87 88 86 81 74 68 61 55 54 53 50 51 56 65 66 78 79 77 76 74 74 72 70 65 61 58 57 52 52 52
10 15 20 19 15 14 13 10 13 17 21 34 35 55 66 65 75 81 84 75 68 65 62 55 46 33 24 17 17 17 18 21 28 38 58 71 79 78 77 78 77 76 78 78 73 68 64 59 54
8 14 14 16 16 16 11 11 12 14 22 24 33 57 58 57 69 60 38 34 34 29 24 17 13 12 10 10 11 11 11 11 11 11 11 12 12 27 58 78 78 79 79 79 80 77 73 69 65
8 15 19 16 13 14 10 11 15 18 27 36 36 44 45 52 45 38 39 37 26 18 14 12 10 10 10 10 10 11 11 12 12 12 12 12 12 12 12 12 14 39 73 82 83 84 82 80 75
10 19 14 11 10 10 9 10 10 18 24 35 41 46 46 39 37 36 39 38 32 25 18 14 13 12 12 12 12 12 12 13 13 13 12 12 12 12 13 13 13 13 14 14 44 81 85 86 84
9 13 10 9 8 8 9 8 9 18 21 27 35 38 38 35 35 35 35 35 36 33 26 17 15 14 14 13 14 15 14 14 15 15 15 14 14 15 14 14 14 14 15 16 17 24 78 96 93
10 9 10 7 7 8 9 8 17 20 20 20 24 29 30 30 26 27 32 37 40 37 30 22 18 17 17 16 16 16 16 15 16 17 17 17 17 17 17 16 16 15 16 16 18 22 24 69 97
15 12 10 9 8 7 7 8 19 22 21 22 25 27 26 26 28 31 32 36 40 38 32 28 22 20 20 19 19 19 18 17 19 22 22 21 21 20 18 18 18 19 19 18 16 17 19 26 42
12 11 10 9 9 8 8 8 8 22 21 22 23 24 24 26 28 31 38 42 44 44 39 35 27 24 25 23 22 23 23 22 24 26 29 34 27 28 23 23 23 23 24 24 23 21 26 30 42
12 15 14 10 8 10 8 10 10 18 22 22 22 22 24 28 33 35 40 41 45 46 44 41 36 30 29 26 26 28 27 31 31 33 40 37 37 38 35 34 32 31 30 32 31 31 36 38 46
17 16 19 13 10 8 8 14 12 16 21 23 22 23 25 28 30 35 39 43 46 47 47 45 38 36 34 30 35 34 38 38 40 44 48 43 50 44 42 39 36 36 38 39 38 37 36 40 47
19 22 18 14 9 10 10 15 24 18 22 23 22 24 27 31 37 39 40 43 47 49 51 50 46 39 36 35 38 39 40 44 51 58 63 68 66 70 61 58 51 47 48 45 46 46 60 51 44
22 21 20 18 13 12 12 15 26 22 22 23 22 24 27 32 38 41 44 44 49 50 54 56 51 46 44 41 37 39 43 48 53 62 70 74 75 74 76 75 85 92 91 89 86 80 71 85 71
19 22 24 20 14 13 14 15 15 23 22 22 23 25 27 33 44 42 46 47 51 51 60 65 54 48 41 35 34 38 42 51 55 59 62 64 66 70 78 90 99 100 100 99 100 100 99 99 100
20 22 22 18 14 15 19 18 16 18 23 20 22 25 34 44 44 47 52 51 55 57 67 70 60 48 33 31 40 47 52 56 58 57 58 60 63 76 95 100 99 99 95 91 94 98 98 98 97
21 23 24 23 23 22 21 21 18 16 14 17 20 23 36 39 44 52 54 58 62 64 64 65 53 37 26 33 48 51 51 54 54 57 60 67 73 92 100 100 100 99 99 99 98 98 100 99 97
26 19 23 24 30 38 21 35 22 17 15 13 18 32 43 46 49 52 57 65 66 66 64 62 53 38 20 30 40 34 44 53 61 63 67 73 80 90 99 100 97 95 98 100 99 98 100 100 99
23 23 24 25 29 34 27 30 20 17 19 32 44 46 45 46 48 53 60 63 67 71 69 73 66 48 22 24 27 24 31 44 47 45 49 69 77 88 88 90 90 91 98 100 100 99 100 100 100
19 24 28 28 32 53 32 32 30 46 45 43 43 47 44 46 51 55 59 65 74 78 75 74 66 51 30 19 21 24 37 32 23 16 24 60 73 84 87 88 91 95 98 100 99 100 100 100 100
22 30 64 66 66 58 26 25 60 60 52 39 45 50 47 49 51 54 60 70 77 78 75 68 60 52 41 18 16 19 34 17 11 9 9 37 53 76 83 86 89 94 96 99 100 100 100 100 100
29 29 62 59 54 38 22 33 78 59 54 49 48 48 49 51 52 54 60 63 66 68 68 61 45 47 38 21 15 12 11 10 8 6 7 9 16 59 82 86 88 91 94 95 97 100 100 100 100
20 27 22 34 38 53 41 54 61 55 63 55 49 47 49 52 52 53 56 58 61 62 51 32 20 22 22 17 11 9 8 7 6 5 5 6 9 11 26 68 87 89 93 95 97 97 98 100 100
19 20 41 55 53 57 57 45 79 76 72 68 78 59 56 56 58 58 60 62 64 61 50 19 8 10 12 15 9 7 7 7 8 10 7 6 6 8 10 12 28 52 78 91 94 95 97 99 100
26 32 30 32 62 85 83 76 65 61 70 88 76 66 58 62 64 65 67 68 52 64 46 26 10 8 9 10 11 12 13 15 21 25 20 14 7 6 8 8 8 9 14 30 76 93 94 94 95
30 35 32 73 52 73 82 67 49 59 59 67 74 67 70 68 71 73 72 71 28 38 43 24 19 9 9 8 13 27 34 36 34 42 38 28 13 7 11 7 4 6 8 12 17 24 53 92 94

GFSSGP_850_rhum_162.txt.gz
RH
4 12 16 20 28 35 34 24 15 22 55 64 64 72 89 97 79 86 100 99 100 96 88 75 74 70 62 57 56 56 56 55 53 50 42 37 42 47 52 53 53 51 53 55 56 57 58 58 56
12 13 19 21 35 36 30 22 37 46 63 59 64 73 81 92 99 100 100 99 99 99 91 69 73 72 65 61 61 62 63 62 60 58 55 49 44 46 53 58 59 56 50 55 57 56 55 55 54
11 12 17 32 39 34 29 17 27 47 58 38 55 65 74 93 95 99 99 91 99 99 87 72 74 76 71 69 71 70 71 70 68 64 62 60 58 55 54 57 63 63 62 52 54 56 55 51 50
9 14 19 28 28 23 17 15 23 23 30 37 55 74 74 85 90 91 91 82 88 86 83 78 85 82 79 72 67 62 68 74 75 73 70 67 66 67 66 62 60 60 60 61 56 57 60 53 48
8 12 25 30 27 22 18 13 17 34 42 51 49 76 81 84 85 84 81 82 85 87 88 92 86 78 66 52 42 46 62 67 70 76 77 75 73 71 70 69 69 68 68 65 64 60 60 61 54
8 15 25 26 21 17 14 12 26 31 41 50 61 66 71 80 82 79 80 84 89 96 93 85 74 64 50 39 31 26 29 32 40 52 64 77 80 80 79 76 74 74 74 75 73 69 64 62 60
10 16 17 18 17 15 14 13 20 30 34 44 47 64 75 78 77 79 83 88 84 76 70 65 60 50 31 14 12 11 11 11 12 14 24 34 54 78 81 81 82 80 78 77 79 80 76 73 68
8 17 15 16 17 17 12 12 17 22 30 32 42 69 72 71 78 83 76 60 51 44 36 26 18 14 12 11 10 11 10 10 10 11 11 12 12 12 16 35 69 82 83 82 82 82 84 84 83
9 16 19 15 14 14 10 13 23 27 27 36 44 44 52 69 74 52 39 32 26 22 19 16 15 14 12 11 12 12 12 11 12 12 12 12 12 12 12 13 13 13 21 40 72 82 80 84 89
11 19 15 12 10 10 9 10 17 25 36 49 50 49 60 60 46 42 39 35 29 21 17 15 16 14 14 14 15 14 14 14 14 13 12 13 12 12 12 13 13 14 15 15 15 21 44 75 83
11 15 12 10 9 8 9 9 15 22 24 38 51 53 49 40 39 39 39 35 33 26 22 22 21 19 17 17 16 16 15 16 17 16 14 14 14 14 13 14 14 15 14 15 15 15 18 22 52
16 12 12 11 9 8 8 9 22 21 20 22 40 42 39 39 41 39 36 35 33 33 30 26 24 23 20 21 20 18 17 18 19 18 16 17 17 16 16 15 16 16 16 16 15 15 16 17 22
15 14 11 10 10 10 8 9 21 24 23 29 34 37 38 38 36 36 36 36 35 36 33 27 25 24 24 24 25 23 22 21 20 22 20 19 18 19 18 19 19 19 18 18 17 16 16 17 19
14 15 14 12 11 10 9 12 16 25 26 30 32 34 33 30 32 34 36 36 37 38 36 30 28 27 26 26 26 26 27 27 29 26 23 23 23 23 23 23 23 21 20 20 19 18 17 16 19
14 16 16 14 11 11 9 11 14 22 27 29 30 29 28 29 31 33 37 40 40 40 40 38 34 33 30 29 30 30 32 34 32 31 30 30 30 30 30 28 28 28 26 26 25 25 26 24 23
18 17 20 14 11 10 9 14 12 22 25 27 26 28 29 32 32 34 37 40 43 42 40 38 37 38 38 36 37 38 37 36 37 40 42 42 40 37 35 35 35 32 32 32 33 33 32 33 32
25 23 20 18 12 11 11 13 16 21 23 25 26 28 33 36 38 40 42 42 42 42 40 37 38 38 37 38 38 39 41 42 44 44 46 47 46 44 43 42 40 40 40 40 38 39 44 43 39
23 23 23 22 18 14 13 14 22 25 25 25 25 30 39 41 41 40 42 43 41 43 41 39 41 43 39 39 40 42 43 44 47 46 44 46 49 48 49 50 50 50 52 52 56 60 60 69 66
24 23 25 21 16 17 15 16 17 25 26 26 27 33 41 40 44 44 46 48 45 47 48 47 49 42 34 31 32 36 39 46 46 47 48 45 47 51 55 59 59 66 71 76 82 88 97 99 98
21 23 26 21 20 19 22 25 20 27 26 24 25 33 44 47 52 51 51 50 47 50 54 52 48 37 26 28 33 38 44 47 47 44 45 50 53 60 66 70 73 81 87 91 89 92 95 96 98
22 23 24 26 26 23 25 27 20 18 20 23 25 32 48 53 52 54 56 54 59 61 60 52 47 33 22 32 33 31 35 35 28 28 43 52 56 61 68 75 81 88 90 92 93 94 98 99 92
26 21 23 26 31 36 24 42 23 17 17 40 32 46 54 55 56 58 58 59 61 63 60 52 50 32 17 19 16 11 12 14 15 18 33 43 56 63 68 74 80 86 89 93 96 98 100 100 99
25 22 25 26 30 33 32 34 30 29 46 57 53 56 59 56 55 60 62 61 63 63 61 52 48 39 15 11 12 12 15 12 8 7 19 22 46 58 67 73 76 83 90 97 100 99 100 100 100
20 23 28 32 35 51 35 31 42 72 65 54 53 56 53 53 58 61 63 65 66 68 69 61 50 37 26 13 10 12 14 8 7 6 6 9 18 35 50 70 76 80 85 91 98 99 100 100 100
20 35 62 64 65 57 31 31 59 66 54 52 54 57 59 58 56 57 61 68 69 71 72 67 54 38 29 15 10 10 9 6 5 4 4 5 6 10 20 46 74 78 85 89 94 97 99 100 100
28 36 58 57 62 50 25 35 76 61 57 53 50 49 50 52 54 56 63 69 71 71 69 68 58 36 27 16 11 9 7 5 4 4 4 4 5 7 10 18 39 61 77 85 87 94 98 99 100
23 34 28 46 41 54 44 72 63 56 61 58 55 51 51 52 53 54 62 69 66 64 65 59 49 30 26 15 9 7 7 6 7 6 5 4 5 6 7 8 7 8 24 74 85 87 93 96 97
18 20 37 53 47 56 59 49 80 73 71 72 75 59 55 54 56 58 59 61 60 60 51 37 20 20 18 11 8 8 10 11 13 13 7 5 6 6 6 5 4 6 9 17 40 80 93 95 96
38 41 37 38 64 65 82 77 71 76 70 80 73 59 52 54 54 55 58 62 62 60 43 33 10 9 15 15 13 18 19 18 23 23 16 8 6 8 7 5 4 4 5 10 11 13 31 79 95
30 38 40 76 48 70 81 62 54 69 70 66 60 58 60 55 58 61 61 64 66 56 37 34 14 9 8 11 24 32 31 31 38 35 24 14 7 8 10 7 4 4 5 5 6 8 9 9 19

GFSSGP_850_rhum_165.txt.gz
RH
11 13 16 21 26 38 36 28 19 17 67 73 61 63 78 97 78 89 100 100 100 94 83 78 57 61 63 63 58 57 56 54 53 50 44 38 40 46 53 57 57 59 62 62 58 56 56 57 56
11 12 19 22 34 35 26 24 39 51 74 66 66 76 81 94 96 100 99 100 100 99 87 84 78 69 67 67 62 62 60 59 58 55 53 51 45 42 47 54 59 63 59 57 61 59 54 55 57
9 11 17 35 44 32 28 19 28 65 61 48 68 75 82 95 98 100 100 98 100 100 99 85 82 74 70 72 71 67 60 59 63 62 60 58 58 56 55 56 60 63 65 63 57 58 57 57 54
8 14 20 30 30 26 22 18 31 65 62 48 65 83 84 94 92 90 95 98 96 91 97 91 90 73 81 79 68 61 49 53 60 62 64 65 64 65 64 63 62 63 64 61 64 61 62 60 56
8 14 27 30 27 23 20 16 20 40 49 57 61 86 84 89 86 90 88 90 94 90 95 96 88 86 82 71 58 46 43 51 53 64 70 73 73 71 71 70 68 69 68 69 65 66 62 62 59
9 16 25 21 19 17 16 22 29 41 50 57 69 73 77 84 85 85 84 83 88 96 99 98 88 73 58 54 48 36 34 39 43 47 57 66 73 78 78 79 76 74 73 76 77 74 72 67 68
11 18 18 18 18 17 15 20 26 33 40 54 59 74 80 83 82 78 79 83 88 97 90 81 70 62 56 43 24 18 15 14 13 14 16 18 27 44 70 84 83 82 78 79 82 81 79 77 75
9 19 16 16 18 18 14 17 22 29 34 43 46 78 83 79 81 80 82 83 89 79 69 60 50 37 20 15 13 12 12 12 12 12 12 13 12 12 12 13 17 44 74 82 84 84 83 82 79
10 16 19 15 15 15 10 17 22 30 34 42 49 56 57 78 78 81 82 73 61 50 36 25 18 15 14 13 13 13 14 14 14 13 13 13 13 14 13 13 13 14 14 14 17 44 80 85 85
13 19 16 14 11 11 10 13 24 31 43 53 52 52 70 76 79 77 62 48 31 23 18 18 17 17 16 16 15 15 15 14 14 14 14 14 14 14 14 14 14 14 14 15 14 14 16 23 36
14 16 14 10 10 9 10 10 19 26 30 42 54 68 74 78 63 52 41 35 29 26 24 22 20 20 19 20 19 17 16 16 15 15 15 15 16 16 17 16 17 17 17 17 16 15 15 15 16
16 13 13 12 11 10 10 12 20 23 18 21 39 52 74 68 48 44 41 38 35 33 29 25 21 20 20 20 20 18 18 18 18 17 17 16 16 16 17 19 18 19 18 18 17 17 17 16 16
17 16 14 13 12 11 10 9 14 21 22 27 45 60 61 48 44 42 40 38 37 36 31 27 25 24 23 22 21 20 21 21 20 20 20 20 20 20 19 19 20 21 22 21 20 19 17 17 17
16 17 15 12 12 12 10 12 20 23 33 42 48 51 45 43 44 43 40 39 40 37 33 31 30 28 26 24 23 22 22 23 24 24 23 24 24 25 25 24 22 21 22 22 21 20 19 19 18
17 19 18 14 12 12 11 16 25 19 36 42 46 46 45 46 42 40 40 39 40 38 36 32 30 28 27 26 25 26 25 26 26 27 29 29 28 27 27 28 27 26 24 23 24 25 24 23 22
22 20 22 14 14 12 11 14 14 23 33 39 42 41 42 42 41 43 44 41 43 40 37 33 31 30 30 30 30 31 31 32 32 33 32 34 34 33 32 32 32 32 33 33 32 32 31 30 29
28 22 20 20 15 14 12 14 18 28 33 36 37 38 40 45 47 49 48 44 44 41 36 34 34 35 35 35 35 35 36 36 37 39 38 36 34 33 33 35 36 36 35 38 39 40 48 46 41
22 24 25 26 20 19 16 16 19 28 29 32 36 40 44 46 49 50 50 48 45 40 39 38 38 38 36 34 34 36 39 41 41 38 33 35 38 39 40 42 44 45 48 46 50 55 56 65 66
26 29 30 25 19 20 17 20 21 25 28 29 35 46 46 47 51 54 52 49 47 44 44 43 44 38 32 31 35 40 39 39 34 26 31 35 38 43 46 50 53 58 61 71 78 84 78 78 88
31 33 29 23 20 22 23 27 24 28 30 28 32 41 46 53 62 62 56 52 50 48 50 47 43 34 26 30 32 31 33 28 20 22 26 31 38 42 49 55 60 65 70 78 85 91 96 97 97
30 30 26 25 25 23 26 29 21 20 24 26 29 37 49 55 66 64 60 56 57 56 55 51 42 29 21 22 20 23 23 17 11 12 18 23 32 36 46 57 60 66 72 77 84 89 96 99 93
29 22 25 26 31 33 26 43 30 20 43 51 45 48 58 66 67 66 64 63 64 61 60 53 45 28 15 16 17 15 13 8 6 6 12 13 19 24 32 48 56 64 69 74 83 93 97 100 99
26 22 25 26 31 35 35 34 29 53 54 57 60 67 74 75 68 66 63 62 66 63 62 54 47 39 21 13 11 13 12 7 6 6 6 6 8 11 15 32 49 59 72 77 81 86 92 98 100
20 25 35 42 40 46 38 36 38 65 64 60 60 67 72 66 61 60 66 66 60 58 64 60 51 38 25 15 9 9 7 6 5 5 4 4 4 5 7 12 22 33 63 74 81 87 94 95 98
22 35 55 62 66 51 35 35 39 65 64 59 62 65 65 57 59 63 63 62 64 60 65 65 57 44 24 15 10 8 6 5 5 4 4 4 4 4 4 4 5 10 49 74 80 85 91 93 94
31 34 54 53 63 50 33 39 68 66 58 57 58 55 53 55 54 56 54 66 66 68 71 62 56 44 20 14 10 8 6 6 6 5 4 4 4 4 4 4 5 8 19 39 60 78 84 89 92
28 39 32 44 48 59 47 66 65 63 65 62 60 55 54 52 54 59 70 70 69 69 65 63 52 29 15 12 9 8 9 10 10 8 5 4 5 5 4 3 3 6 8 9 11 33 82 91 94
20 21 40 54 49 61 55 56 82 79 73 71 76 62 56 58 60 64 70 73 71 68 66 58 32 16 15 10 10 11 14 15 16 14 7 5 6 6 4 3 3 4 5 6 6 6 24 73 91
36 41 40 43 64 64 67 68 65 68 67 73 69 61 56 56 56 59 66 70 66 66 62 45 21 10 15 16 17 20 21 22 22 18 10 6 7 7 6 4 4 4 4 4 5 5 8 10 18
30 38 45 78 52 72 81 74 57 70 63 66 68 60 54 56 57 59 64 66 65 63 60 38 18 9 10 16 22 28 28 25 23 24 16 7 6 8 8 6 4 4 4 4 4 4 7 9 10

GFSSGP_850_rhum_168.txt.gz
RH
11 12 15 21 24 35 32 27 21 25 63 75 67 63 67 94 82 82 100 100 100 100 91 75 69 62 60 59 57 57 57 56 54 49 44 42 46 53 56 60 61 61 63 61 58 56 56 57 57
9 11 18 23 33 29 22 24 31 62 80 73 69 76 85 94 97 100 100 100 98 96 87 79 75 72 64 55 63 60 62 60 58 56 56 54 51 51 54 60 64 65 65 63 60 58 56 54 57
8 10 17 38 46 29 28 20 61 72 65 55 74 78 88 95 99 97 100 99 98 99 95 83 81 89 68 64 69 68 71 66 62 61 61 60 62 61 59 62 64 65 76 72 81 65 59 56 57
8 14 21 32 32 29 24 19 51 72 62 53 73 87 89 92 94 95 97 98 97 90 98 91 86 81 70 73 76 68 68 62 64 64 66 66 66 66 66 66 65 64 65 64 61 60 61 59 57
8 15 29 31 28 25 22 18 54 70 56 61 64 88 86 92 88 93 96 99 94 97 97 89 85 81 76 77 71 63 64 62 61 60 60 64 71 72 72 72 72 72 72 72 70 66 60 58 56
10 16 24 24 18 17 17 22 33 48 58 67 70 79 83 88 95 93 86 90 95 95 98 93 90 84 79 66 53 50 44 38 34 34 35 43 56 67 79 84 84 81 78 79 79 77 73 71 62
13 19 19 18 19 18 16 19 31 42 56 63 72 80 84 88 91 87 84 86 91 97 99 95 84 72 61 53 39 25 16 12 11 11 12 13 14 21 33 51 66 81 86 84 87 86 84 81 79
10 19 17 18 19 19 15 19 25 33 41 60 56 84 87 84 89 84 83 85 90 91 84 77 66 55 42 23 14 11 11 12 12 12 13 13 13 13 13 14 13 13 15 23 42 74 86 89 87
11 17 20 15 16 14 10 17 26 32 40 44 49 59 60 80 85 85 84 84 79 73 55 43 35 26 17 13 12 12 12 13 13 13 13 14 14 14 14 13 14 13 13 14 14 15 17 29 58
14 19 16 14 12 11 10 14 23 33 44 50 55 63 68 80 84 83 81 75 64 48 34 26 21 17 15 14 15 15 15 15 14 15 15 14 14 14 15 14 15 15 16 16 15 14 14 16 17
15 16 13 12 11 11 10 13 19 31 35 38 47 57 76 78 80 81 77 59 43 30 23 19 16 14 15 17 18 17 17 17 17 16 16 15 15 15 16 17 16 17 17 17 18 18 17 15 15
16 15 14 13 12 13 12 13 21 23 18 19 31 50 74 77 79 75 70 45 33 28 26 23 21 22 21 21 20 19 20 19 18 17 16 16 16 17 17 17 20 20 20 20 20 18 18 18 17
18 16 15 14 12 12 12 11 12 22 20 20 37 62 74 78 70 54 46 42 40 37 31 28 25 24 22 21 21 20 20 19 18 18 18 18 18 20 20 21 21 22 21 20 20 20 19 18 18
18 18 18 14 13 13 12 12 19 21 28 40 50 64 76 74 56 49 47 44 42 38 35 32 29 26 24 23 23 23 22 22 22 23 23 23 24 24 24 23 23 23 23 23 22 21 19 20 20
20 21 19 13 14 13 13 12 22 22 46 56 65 71 74 59 51 47 45 43 43 41 38 33 30 28 27 27 26 27 27 28 28 28 28 28 27 26 25 24 22 23 23 24 25 25 25 25 25
24 21 21 13 16 12 11 17 13 23 47 59 63 64 60 56 51 48 46 46 46 42 37 32 30 29 28 29 29 29 29 29 30 30 30 28 24 21 20 21 21 23 26 27 27 28 30 31 32
26 19 22 22 17 16 12 15 13 28 46 50 52 53 54 54 52 51 49 48 45 41 37 35 35 34 33 33 33 32 31 31 31 30 23 18 19 22 24 27 30 32 34 38 40 41 43 44 45
19 26 26 28 22 20 18 18 17 27 37 42 45 49 51 51 52 52 51 49 46 41 38 39 38 36 35 33 33 33 33 32 27 18 16 18 21 24 27 30 34 36 38 42 48 57 64 66 68
27 30 34 30 23 23 24 20 21 23 33 41 45 47 50 50 54 55 55 52 47 43 44 43 41 37 33 32 34 33 29 22 14 11 14 20 25 27 30 33 31 31 36 44 56 65 72 78 86
34 36 38 30 23 24 26 28 26 26 34 36 51 54 52 56 64 65 62 57 52 48 49 45 42 34 29 31 28 25 20 13 8 9 12 16 20 25 29 30 29 27 37 46 55 67 75 78 85
33 35 33 30 26 24 28 29 25 25 40 39 39 46 54 57 68 69 65 61 59 55 49 46 41 30 25 24 19 16 13 9 7 6 8 8 10 12 20 27 25 20 37 50 61 70 79 84 83
36 28 26 27 31 38 27 44 28 27 42 58 56 55 59 65 68 69 70 66 58 54 52 48 42 28 18 16 16 14 10 7 6 6 6 6 6 6 6 13 18 17 43 54 63 74 83 90 92
30 23 25 27 32 36 36 41 34 51 44 57 68 68 72 72 69 71 65 61 63 60 57 55 48 38 24 15 12 9 8 6 5 5 5 5 5 5 4 5 6 10 42 51 58 72 80 88 94
22 26 37 48 44 51 38 39 34 52 52 60 62 74 78 76 72 68 64 65 64 66 64 63 54 42 27 16 9 7 6 6 5 5 5 5 4 4 4 4 4 8 21 27 39 69 79 83 88
27 36 56 56 65 51 37 41 36 54 62 65 66 74 77 72 67 62 60 63 64 66 68 66 60 47 29 16 9 7 6 6 6 5 5 4 4 4 3 3 3 4 6 8 16 48 76 85 87
34 39 56 54 66 54 36 43 51 66 60 57 58 61 68 67 60 54 56 64 69 71 65 67 61 50 26 13 9 7 6 7 7 6 5 5 4 4 3 3 3 4 5 5 6 20 58 86 91
32 41 33 47 50 59 48 45 57 65 63 64 64 65 69 68 66 70 73 68 66 63 65 64 60 43 19 12 8 7 7 8 9 9 6 5 5 4 4 3 3 4 5 4 5 6 10 33 61
22 24 42 61 80 66 57 48 63 74 73 73 77 65 63 66 68 66 64 66 68 69 69 65 60 32 17 10 8 8 9 11 14 13 7 6 7 6 4 4 4 4 4 4 5 5 8 9 15
32 34 42 45 66 67 67 60 64 64 67 76 70 57 54 58 60 62 63 68 71 74 73 66 47 21 13 10 10 11 14 16 22 17 8 7 7 7 6 4 4 4 4 4 4 5 6 7 8
31 36 42 70 50 72 82 59 45 74 72 65 66 58 51 52 55 59 62 69 74 76 69 61 38 18 13 13 15 17 20 22 29 20 11 6 6 8 8 6 4 4 5 5 5 5 6 6 6